Wetterdaten: Freitag, 10.11.2017
Datum Zeit Temp. Aussen Temp. o. S. +5cm Feuchte Auss BlattFeu 1 Luftdruck Regen Sonnenschein Regendauer Solar Windben Empfang
10.11.2017 00:00 7,3 C 6,7 C 6,1 C 95 % 15 lf 1020,6 hPa 0,0 l/m 0 min 0 min 0 W/m 29,3 km/h (5 Bft) 95,65 %
10.11.2017 00:02 7,3 C 6,7 C 6,1 C 95 % 15 lf 1020,6 hPa 0,0 l/m 0 min 0 min 0 W/m 29,3 km/h (5 Bft) 93,18 %
10.11.2017 00:04 7,3 C 6,7 C 6,1 C 95 % 15 lf 1020,6 hPa 0,0 l/m 0 min 0 min 0 W/m 23,0 km/h (4 Bft) 93,62 %
10.11.2017 00:07 7,3 C 6,7 C 6,1 C 95 % 15 lf 1020,5 hPa 0,0 l/m 0 min 0 min 0 W/m 27,2 km/h (4 Bft) 93,62 %
10.11.2017 00:08 7,3 C 6,7 C 6,1 C 95 % 15 lf 1020,4 hPa 0,0 l/m 0 min 0 min 0 W/m 27,2 km/h (4 Bft) 94,17 %
10.11.2017 00:10 7,3 C 6,7 C 6,1 C 95 % 15 lf 1020,4 hPa 0,0 l/m 0 min 0 min 0 W/m 29,3 km/h (5 Bft) 94,29 %
10.11.2017 00:12 7,3 C 6,7 C 6,1 C 95 % 15 lf 1020,4 hPa 0,0 l/m 0 min 0 min 0 W/m 27,2 km/h (4 Bft) 93,62 %
10.11.2017 00:14 7,3 C 6,7 C 6,1 C 95 % 15 lf 1020,4 hPa 0,0 l/m 0 min 0 min 0 W/m 23,0 km/h (4 Bft) 95,65 %
10.11.2017 00:16 7,3 C 6,7 C 6,1 C 95 % 15 lf 1020,5 hPa 0,0 l/m 0 min 0 min 0 W/m 29,3 km/h (5 Bft) 95,74 %
10.11.2017 00:18 7,3 C 6,7 C 6,1 C 96 % 15 lf 1020,5 hPa 0,0 l/m 0 min 0 min 0 W/m 37,7 km/h (5 Bft) 95,74 %
10.11.2017 00:20 7,3 C 6,7 C 6,1 C 96 % 15 lf 1020,5 hPa 0,0 l/m 0 min 0 min 0 W/m 37,7 km/h (5 Bft) 95,74 %
10.11.2017 00:22 7,3 C 6,7 C 6,1 C 96 % 15 lf 1020,5 hPa 0,0 l/m 0 min 0 min 0 W/m 33,5 km/h (5 Bft) 97,87 %
10.11.2017 00:24 7,3 C 6,7 C 6,1 C 96 % 15 lf 1020,5 hPa 0,0 l/m 0 min 0 min 0 W/m 20,9 km/h (4 Bft) 95,65 %
10.11.2017 00:26 7,3 C 6,7 C 6,1 C 96 % 15 lf 1020,4 hPa 0,0 l/m 0 min 0 min 0 W/m 25,1 km/h (4 Bft) 95,74 %
10.11.2017 00:28 7,3 C 6,7 C 6,1 C 96 % 15 lf 1020,3 hPa 0,0 l/m 0 min 0 min 0 W/m 35,6 km/h (5 Bft) 95,74 %
10.11.2017 00:30 7,3 C 6,7 C 6,1 C 96 % 15 lf 1020,3 hPa 0,0 l/m 0 min 0 min 0 W/m 29,3 km/h (5 Bft) 93,62 %
10.11.2017 00:32 7,3 C 6,7 C 6,1 C 96 % 15 lf 1020,3 hPa 0,0 l/m 0 min 0 min 0 W/m 29,3 km/h (5 Bft) 93,62 %
10.11.2017 00:34 7,3 C 6,7 C 6,1 C 96 % 15 lf 1020,2 hPa 0,0 l/m 0 min 0 min 0 W/m 29,3 km/h (5 Bft) 95,74 %
10.11.2017 00:36 7,3 C 6,7 C 6,1 C 96 % 15 lf 1020,1 hPa 0,0 l/m 0 min 2 min 0 W/m 25,1 km/h (4 Bft) 95,65 %
10.11.2017 00:38 7,3 C 6,7 C 6,1 C 96 % 15 lf 1020,1 hPa 0,0 l/m 0 min 2 min 0 W/m 27,2 km/h (4 Bft) 95,74 %
10.11.2017 00:40 7,3 C 6,7 C 5,6 C 96 % 15 lf 1020,0 hPa 0,2 l/m 0 min 2 min 0 W/m 29,3 km/h (5 Bft) 93,62 %
10.11.2017 00:42 7,3 C 6,7 C 5,6 C 96 % 15 lf 1020,1 hPa 0,0 l/m 0 min 2 min 0 W/m 31,4 km/h (5 Bft) 97,87 %
10.11.2017 00:44 7,3 C 6,7 C 6,1 C 96 % 15 lf 1020,0 hPa 0,0 l/m 0 min 2 min 0 W/m 20,9 km/h (4 Bft) 95,74 %
10.11.2017 00:46 7,3 C 6,7 C 6,1 C 96 % 15 lf 1019,9 hPa 0,2 l/m 0 min 2 min 0 W/m 25,1 km/h (4 Bft) 97,87 %
10.11.2017 00:48 7,3 C 6,7 C 5,6 C 96 % 15 lf 1019,9 hPa 0,0 l/m 0 min 2 min 0 W/m 31,4 km/h (5 Bft) 97,83 %
10.11.2017 00:50 7,3 C 6,7 C 5,6 C 96 % 15 lf 1019,9 hPa 0,0 l/m 0 min 2 min 0 W/m 20,9 km/h (4 Bft) 93,62 %
10.11.2017 00:52 7,3 C 6,7 C 5,6 C 96 % 15 lf 1019,9 hPa 0,0 l/m 0 min 2 min 0 W/m 29,3 km/h (5 Bft) 95,74 %
10.11.2017 00:54 7,3 C 6,7 C 5,6 C 96 % 15 lf 1019,8 hPa 0,0 l/m 0 min 0 min 0 W/m 29,3 km/h (5 Bft) 95,74 %
10.11.2017 00:56 7,3 C 6,7 C 5,6 C 96 % 15 lf 1019,8 hPa 0,0 l/m 0 min 0 min 0 W/m 25,1 km/h (4 Bft) 97,87 %
10.11.2017 00:58 7,3 C 6,7 C 5,6 C 96 % 15 lf 1019,7 hPa 0,0 l/m 0 min 0 min 0 W/m 27,2 km/h (4 Bft) 93,62 %
10.11.2017 01:00 7,3 C 6,7 C 5,6 C 96 % 15 lf 1019,7 hPa 0,0 l/m 0 min 0 min 0 W/m 20,9 km/h (4 Bft) 95,65 %
10.11.2017 01:02 7,2 C 6,7 C 6,1 C 96 % 15 lf 1019,7 hPa 0,0 l/m 0 min 0 min 0 W/m 27,2 km/h (4 Bft) 93,62 %
10.11.2017 01:04 7,2 C 6,7 C 6,1 C 96 % 15 lf 1019,7 hPa 0,0 l/m 0 min 0 min 0 W/m 29,3 km/h (5 Bft) 97,87 %
10.11.2017 01:06 7,2 C 6,7 C 5,6 C 96 % 15 lf 1019,5 hPa 0,0 l/m 0 min 0 min 0 W/m 27,2 km/h (4 Bft) 97,87 %
10.11.2017 01:08 7,2 C 6,7 C 6,1 C 96 % 15 lf 1019,6 hPa 0,0 l/m 0 min 0 min 0 W/m 20,9 km/h (4 Bft) 97,87 %
10.11.2017 01:10 7,2 C 6,7 C 6,1 C 96 % 15 lf 1019,6 hPa 0,0 l/m 0 min 0 min 0 W/m 23,0 km/h (4 Bft) 95,74 %
10.11.2017 01:12 7,2 C 6,7 C 6,1 C 96 % 15 lf 1019,5 hPa 0,0 l/m 0 min 0 min 0 W/m 23,0 km/h (4 Bft) 97,83 %
10.11.2017 01:14 7,2 C 6,7 C 6,1 C 96 % 15 lf 1019,4 hPa 0,0 l/m 0 min 0 min 0 W/m 29,3 km/h (5 Bft) 97,87 %
10.11.2017 01:16 7,2 C 6,7 C 6,1 C 96 % 15 lf 1019,3 hPa 0,0 l/m 0 min 0 min 0 W/m 27,2 km/h (4 Bft) 97,87 %
10.11.2017 01:18 7,2 C 6,7 C 6,1 C 96 % 15 lf 1019,3 hPa 0,0 l/m 0 min 0 min 0 W/m 16,7 km/h (3 Bft) 97,87 %
10.11.2017 01:20 7,2 C 6,7 C 6,1 C 96 % 15 lf 1019,2 hPa 0,0 l/m 0 min 0 min 0 W/m 16,7 km/h (3 Bft) 95,74 %
10.11.2017 01:22 7,2 C 6,7 C 6,1 C 96 % 15 lf 1019,2 hPa 0,0 l/m 0 min 0 min 0 W/m 23,0 km/h (4 Bft) 97,87 %
10.11.2017 01:24 7,2 C 6,7 C 6,1 C 96 % 15 lf 1019,3 hPa 0,0 l/m 0 min 0 min 0 W/m 27,2 km/h (4 Bft) 97,83 %
10.11.2017 01:26 7,2 C 6,7 C 6,1 C 96 % 15 lf 1019,3 hPa 0,0 l/m 0 min 0 min 0 W/m 23,0 km/h (4 Bft) 95,74 %
10.11.2017 01:28 7,2 C 6,7 C 6,1 C 96 % 15 lf 1019,5 hPa 0,0 l/m 0 min 0 min 0 W/m 33,5 km/h (5 Bft) 95,74 %
10.11.2017 01:30 7,2 C 6,7 C 6,1 C 96 % 15 lf 1019,6 hPa 0,0 l/m 0 min 0 min 0 W/m 35,6 km/h (5 Bft) 95,74 %
10.11.2017 01:32 7,2 C 6,7 C 6,1 C 96 % 15 lf 1019,6 hPa 0,0 l/m 0 min 0 min 0 W/m 25,1 km/h (4 Bft) 93,62 %
10.11.2017 01:34 7,2 C 6,7 C 6,1 C 96 % 15 lf 1019,7 hPa 0,0 l/m 0 min 0 min 0 W/m 14,6 km/h (3 Bft) 95,65 %
10.11.2017 01:36 7,2 C 6,7 C 6,1 C 97 % 15 lf 1019,8 hPa 0,0 l/m 0 min 0 min 0 W/m 33,5 km/h (5 Bft) 93,62 %
10.11.2017 01:38 7,2 C 6,7 C 6,1 C 97 % 15 lf 1019,8 hPa 0,0 l/m 0 min 0 min 0 W/m 25,1 km/h (4 Bft) 97,87 %
10.11.2017 01:40 7,2 C 6,7 C 6,1 C 97 % 15 lf 1019,8 hPa 0,0 l/m 0 min 0 min 0 W/m 23,0 km/h (4 Bft) 100,00 %
10.11.2017 01:42 7,2 C 6,7 C 6,1 C 97 % 15 lf 1019,9 hPa 0,0 l/m 0 min 0 min 0 W/m 27,2 km/h (4 Bft) 97,87 %
10.11.2017 01:44 7,2 C 6,7 C 6,1 C 97 % 15 lf 1019,9 hPa 0,0 l/m 0 min 0 min 0 W/m 25,1 km/h (4 Bft) 100,00 %
10.11.2017 01:46 7,3 C 6,7 C 6,1 C 97 % 15 lf 1020,0 hPa 0,0 l/m 0 min 0 min 0 W/m 29,3 km/h (5 Bft) 95,65 %
10.11.2017 01:48 7,3 C 6,7 C 6,1 C 97 % 15 lf 1020,1 hPa 0,0 l/m 0 min 0 min 0 W/m 29,3 km/h (5 Bft) 100,00 %
10.11.2017 01:50 7,3 C 6,7 C 6,1 C 97 % 15 lf 1020,0 hPa 0,0 l/m 0 min 0 min 0 W/m 25,1 km/h (4 Bft) 100,00 %
10.11.2017 01:52 7,3 C 6,7 C 6,1 C 97 % 15 lf 1020,0 hPa 0,0 l/m 0 min 0 min 0 W/m 25,1 km/h (4 Bft) 100,00 %
10.11.2017 01:54 7,3 C 6,7 C 6,1 C 97 % 15 lf 1019,8 hPa 0,0 l/m 0 min 0 min 0 W/m 25,1 km/h (4 Bft) 100,00 %
10.11.2017 01:56 7,3 C 6,7 C 6,1 C 97 % 15 lf 1019,7 hPa 0,0 l/m 0 min 0 min 0 W/m 25,1 km/h (4 Bft) 100,00 %
10.11.2017 01:58 7,3 C 6,7 C 6,1 C 97 % 15 lf 1019,5 hPa 0,0 l/m 0 min 0 min 0 W/m 35,6 km/h (5 Bft) 100,00 %
10.11.2017 02:00 7,3 C 6,7 C 6,1 C 97 % 15 lf 1019,3 hPa 0,0 l/m 0 min 0 min 0 W/m 29,3 km/h (5 Bft) 100,00 %
10.11.2017 02:02 7,3 C 6,7 C 6,1 C 97 % 15 lf 1019,2 hPa 0,0 l/m 0 min 0 min 0 W/m 25,1 km/h (4 Bft) 100,00 %
10.11.2017 02:04 7,3 C 6,7 C 6,1 C 97 % 15 lf 1019,2 hPa 0,0 l/m 0 min 0 min 0 W/m 25,1 km/h (4 Bft) 97,87 %
10.11.2017 02:06 7,3 C 6,7 C 6,1 C 97 % 15 lf 1019,2 hPa 0,0 l/m 0 min 0 min 0 W/m 29,3 km/h (5 Bft) 100,00 %
10.11.2017 02:08 7,3 C 6,7 C 6,1 C 97 % 15 lf 1019,1 hPa 0,0 l/m 0 min 0 min 0 W/m 35,6 km/h (5 Bft) 100,00 %
10.11.2017 02:10 7,3 C 6,7 C 6,1 C 97 % 15 lf 1019,2 hPa 0,0 l/m 0 min 0 min 0 W/m 33,5 km/h (5 Bft) 97,83 %
10.11.2017 02:12 7,3 C 6,7 C 6,1 C 97 % 15 lf 1019,2 hPa 0,0 l/m 0 min 0 min 0 W/m 33,5 km/h (5 Bft) 97,87 %
10.11.2017 02:14 7,3 C 6,7 C 6,1 C 97 % 15 lf 1019,1 hPa 0,0 l/m 0 min 0 min 0 W/m 29,3 km/h (5 Bft) 100,00 %
10.11.2017 02:16 7,3 C 6,7 C 6,1 C 97 % 15 lf 1019,1 hPa 0,0 l/m 0 min 0 min 0 W/m 23,0 km/h (4 Bft) 97,87 %
10.11.2017 02:18 7,3 C 6,7 C 6,1 C 97 % 15 lf 1019,1 hPa 0,0 l/m 0 min 2 min 0 W/m 18,8 km/h (3 Bft) 100,00 %
10.11.2017 02:20 7,3 C 6,7 C 6,1 C 97 % 15 lf 1019,1 hPa 0,0 l/m 0 min 0 min 0 W/m 25,1 km/h (4 Bft) 100,00 %
10.11.2017 02:22 7,3 C 6,7 C 6,1 C 97 % 15 lf 1019,1 hPa 0,0 l/m 0 min 0 min 0 W/m 33,5 km/h (5 Bft) 97,83 %
10.11.2017 02:24 7,3 C 6,7 C 6,1 C 97 % 15 lf 1019,1 hPa 0,0 l/m 0 min 0 min 0 W/m 33,5 km/h (5 Bft) 95,74 %
10.11.2017 02:26 7,3 C 6,7 C 6,1 C 97 % 15 lf 1019,1 hPa 0,0 l/m 0 min 0 min 0 W/m 25,1 km/h (4 Bft) 95,74 %
10.11.2017 02:28 7,3 C 6,7 C 6,1 C 97 % 15 lf 1019,2 hPa 0,0 l/m 0 min 0 min 0 W/m 29,3 km/h (5 Bft) 97,87 %
10.11.2017 02:30 7,3 C 6,7 C 6,1 C 97 % 15 lf 1019,2 hPa 0,0 l/m 0 min 2 min 0 W/m 31,4 km/h (5 Bft) 97,87 %
10.11.2017 02:32 7,3 C 6,7 C 6,1 C 97 % 15 lf 1019,0 hPa 0,0 l/m 0 min 2 min 0 W/m 31,4 km/h (5 Bft) 95,74 %
10.11.2017 02:34 7,3 C 6,7 C 6,1 C 97 % 15 lf 1019,1 hPa 0,0 l/m 0 min 2 min 0 W/m 27,2 km/h (4 Bft) 97,83 %
10.11.2017 02:36 7,3 C 6,7 C 6,1 C 97 % 15 lf 1019,1 hPa 0,0 l/m 0 min 2 min 0 W/m 29,3 km/h (5 Bft) 93,62 %
10.11.2017 02:38 7,3 C 6,7 C 6,1 C 97 % 15 lf 1019,2 hPa 0,0 l/m 0 min 2 min 0 W/m 31,4 km/h (5 Bft) 97,87 %
10.11.2017 02:40 7,3 C 6,7 C 6,1 C 97 % 15 lf 1019,2 hPa 0,2 l/m 0 min 2 min 0 W/m 27,2 km/h (4 Bft) 97,87 %
10.11.2017 02:42 7,3 C 6,7 C 6,1 C 97 % 15 lf 1019,1 hPa 0,0 l/m 0 min 2 min 0 W/m 25,1 km/h (4 Bft) 95,74 %
10.11.2017 02:44 7,3 C 6,7 C 6,1 C 97 % 15 lf 1019,0 hPa 0,0 l/m 0 min 2 min 0 W/m 20,9 km/h (4 Bft) 97,87 %
10.11.2017 02:46 7,3 C 6,7 C 6,1 C 97 % 15 lf 1018,9 hPa 0,0 l/m 0 min 0 min 0 W/m 20,9 km/h (4 Bft) 95,65 %
10.11.2017 02:48 7,3 C 6,7 C 6,1 C 97 % 15 lf 1018,9 hPa 0,0 l/m 0 min 2 min 0 W/m 23,0 km/h (4 Bft) 95,74 %
10.11.2017 02:50 7,3 C 6,7 C 6,1 C 97 % 15 lf 1018,9 hPa 0,0 l/m 0 min 0 min 0 W/m 25,1 km/h (4 Bft) 95,74 %
10.11.2017 02:52 7,3 C 6,7 C 6,1 C 97 % 15 lf 1018,9 hPa 0,0 l/m 0 min 0 min 0 W/m 23,0 km/h (4 Bft) 91,49 %
10.11.2017 02:54 7,3 C 6,7 C 6,1 C 97 % 15 lf 1018,9 hPa 0,0 l/m 0 min 0 min 0 W/m 27,2 km/h (4 Bft) 95,74 %
10.11.2017 02:56 7,3 C 6,7 C 6,1 C 97 % 15 lf 1018,9 hPa 0,0 l/m 0 min 0 min 0 W/m 25,1 km/h (4 Bft) 95,65 %
10.11.2017 02:58 7,3 C 6,7 C 6,1 C 97 % 15 lf 1018,8 hPa 0,0 l/m 0 min 0 min 0 W/m 25,1 km/h (4 Bft) 97,87 %
10.11.2017 03:00 7,3 C 6,7 C 6,1 C 97 % 15 lf 1018,7 hPa 0,0 l/m 0 min 2 min 0 W/m 27,2 km/h (4 Bft) 97,87 %
10.11.2017 03:02 7,3 C 6,7 C 6,1 C 97 % 15 lf 1018,6 hPa 0,0 l/m 0 min 2 min 0 W/m 18,8 km/h (3 Bft) 97,87 %
10.11.2017 03:04 7,3 C 6,7 C 6,1 C 97 % 15 lf 1018,6 hPa 0,0 l/m 0 min 2 min 0 W/m 25,1 km/h (4 Bft) 95,74 %
10.11.2017 03:06 7,3 C 6,7 C 6,1 C 97 % 15 lf 1018,4 hPa 0,2 l/m 0 min 2 min 0 W/m 25,1 km/h (4 Bft) 95,74 %
10.11.2017 03:08 7,3 C 6,7 C 6,1 C 97 % 15 lf 1018,5 hPa 0,0 l/m 0 min 2 min 0 W/m 20,9 km/h (4 Bft) 93,48 %
10.11.2017 03:10 7,3 C 6,7 C 6,1 C 97 % 15 lf 1018,6 hPa 0,0 l/m 0 min 0 min 0 W/m 29,3 km/h (5 Bft) 93,62 %
10.11.2017 03:12 7,3 C 6,7 C 6,1 C 97 % 15 lf 1018,7 hPa 0,0 l/m 0 min 0 min 0 W/m 25,1 km/h (4 Bft) 95,74 %
10.11.2017 03:14 7,4 C 6,7 C 6,1 C 97 % 15 lf 1018,7 hPa 0,0 l/m 0 min 0 min 0 W/m 29,3 km/h (5 Bft) 93,62 %
10.11.2017 03:16 7,4 C 6,7 C 6,1 C 97 % 15 lf 1018,6 hPa 0,0 l/m 0 min 0 min 0 W/m 29,3 km/h (5 Bft) 93,62 %
10.11.2017 03:18 7,4 C 6,7 C 6,1 C 97 % 15 lf 1018,6 hPa 0,0 l/m 0 min 0 min 0 W/m 29,3 km/h (5 Bft) 95,74 %
10.11.2017 03:20 7,4 C 6,7 C 6,1 C 97 % 15 lf 1018,6 hPa 0,0 l/m 0 min 0 min 0 W/m 23,0 km/h (4 Bft) 95,65 %
10.11.2017 03:22 7,4 C 6,7 C 6,1 C 97 % 15 lf 1018,6 hPa 0,0 l/m 0 min 0 min 0 W/m 20,9 km/h (4 Bft) 93,62 %
10.11.2017 03:24 7,4 C 6,7 C 6,1 C 97 % 15 lf 1018,5 hPa 0,0 l/m 0 min 0 min 0 W/m 29,3 km/h (5 Bft) 95,74 %
10.11.2017 03:26 7,4 C 6,7 C 6,1 C 97 % 15 lf 1018,4 hPa 0,0 l/m 0 min 0 min 0 W/m 25,1 km/h (4 Bft) 91,49 %
10.11.2017 03:28 7,4 C 6,7 C 6,1 C 97 % 15 lf 1018,4 hPa 0,0 l/m 0 min 0 min 0 W/m 23,0 km/h (4 Bft) 93,62 %
10.11.2017 03:30 7,4 C 7,2 C 6,1 C 97 % 15 lf 1018,4 hPa 0,0 l/m 0 min 0 min 0 W/m 33,5 km/h (5 Bft) 95,74 %
10.11.2017 03:32 7,4 C 7,2 C 6,1 C 97 % 15 lf 1018,5 hPa 0,0 l/m 0 min 2 min 0 W/m 23,0 km/h (4 Bft) 93,48 %
10.11.2017 03:34 7,4 C 7,2 C 6,1 C 97 % 15 lf 1018,4 hPa 0,0 l/m 0 min 2 min 0 W/m 18,8 km/h (3 Bft) 95,74 %
10.11.2017 03:36 7,4 C 7,2 C 6,1 C 97 % 15 lf 1018,2 hPa 0,0 l/m 0 min 2 min 0 W/m 20,9 km/h (4 Bft) 91,49 %
10.11.2017 03:38 7,4 C 7,2 C 6,1 C 97 % 15 lf 1018,2 hPa 0,0 l/m 0 min 0 min 0 W/m 27,2 km/h (4 Bft) 93,62 %
10.11.2017 03:40 7,4 C 7,2 C 6,1 C 97 % 15 lf 1018,2 hPa 0,0 l/m 0 min 0 min 0 W/m 29,3 km/h (5 Bft) 93,62 %
10.11.2017 03:42 7,4 C 7,2 C 6,1 C 97 % 15 lf 1018,2 hPa 0,0 l/m 0 min 0 min 0 W/m 20,9 km/h (4 Bft) 93,62 %
10.11.2017 03:44 7,4 C 7,2 C 6,1 C 97 % 15 lf 1018,2 hPa 0,0 l/m 0 min 0 min 0 W/m 20,9 km/h (4 Bft) 93,48 %
10.11.2017 03:46 7,4 C 7,2 C 6,1 C 97 % 15 lf 1018,1 hPa 0,0 l/m 0 min 0 min 0 W/m 27,2 km/h (4 Bft) 95,74 %
10.11.2017 03:48 7,4 C 7,2 C 6,1 C 97 % 15 lf 1018,1 hPa 0,0 l/m 0 min 0 min 0 W/m 20,9 km/h (4 Bft) 93,62 %
10.11.2017 03:50 7,4 C 7,2 C 6,1 C 97 % 15 lf 1018,0 hPa 0,0 l/m 0 min 0 min 0 W/m 29,3 km/h (5 Bft) 95,74 %
10.11.2017 03:52 7,4 C 7,2 C 6,1 C 97 % 15 lf 1018,0 hPa 0,0 l/m 0 min 0 min 0 W/m 25,1 km/h (4 Bft) 93,62 %
10.11.2017 03:54 7,4 C 7,2 C 6,1 C 97 % 15 lf 1018,0 hPa 0,0 l/m 0 min 0 min 0 W/m 16,7 km/h (3 Bft) 91,30 %
10.11.2017 03:56 7,4 C 7,2 C 6,1 C 97 % 15 lf 1018,0 hPa 0,0 l/m 0 min 0 min 0 W/m 35,6 km/h (5 Bft) 93,62 %
10.11.2017 03:58 7,4 C 7,2 C 6,1 C 97 % 15 lf 1017,9 hPa 0,0 l/m 0 min 0 min 0 W/m 25,1 km/h (4 Bft) 95,74 %
10.11.2017 04:00 7,4 C 7,2 C 6,1 C 97 % 15 lf 1017,9 hPa 0,0 l/m 0 min 0 min 0 W/m 29,3 km/h (5 Bft) 93,62 %
10.11.2017 04:02 7,4 C 7,2 C 6,1 C 97 % 15 lf 1018,0 hPa 0,0 l/m 0 min 0 min 0 W/m 23,0 km/h (4 Bft) 100,00 %
10.11.2017 04:04 7,5 C 7,2 C 6,1 C 97 % 15 lf 1018,0 hPa 0,0 l/m 0 min 0 min 0 W/m 31,4 km/h (5 Bft) 97,87 %
10.11.2017 04:06 7,5 C 7,2 C 6,1 C 97 % 15 lf 1017,9 hPa 0,0 l/m 0 min 0 min 0 W/m 29,3 km/h (5 Bft) 97,83 %
10.11.2017 04:08 7,4 C 7,2 C 6,1 C 97 % 15 lf 1017,8 hPa 0,0 l/m 0 min 0 min 0 W/m 16,7 km/h (3 Bft) 95,74 %
10.11.2017 04:10 7,5 C 7,2 C 6,1 C 97 % 15 lf 1017,8 hPa 0,0 l/m 0 min 0 min 0 W/m 20,9 km/h (4 Bft) 100,00 %
10.11.2017 04:12 7,5 C 7,2 C 6,1 C 97 % 15 lf 1017,8 hPa 0,0 l/m 0 min 0 min 0 W/m 33,5 km/h (5 Bft) 93,62 %
10.11.2017 04:14 7,5 C 7,2 C 6,1 C 97 % 15 lf 1017,8 hPa 0,0 l/m 0 min 0 min 0 W/m 27,2 km/h (4 Bft) 97,87 %
10.11.2017 04:16 7,5 C 7,2 C 6,1 C 97 % 15 lf 1017,7 hPa 0,0 l/m 0 min 0 min 0 W/m 27,2 km/h (4 Bft) 97,87 %
10.11.2017 04:18 7,5 C 7,2 C 6,1 C 97 % 15 lf 1017,8 hPa 0,0 l/m 0 min 0 min 0 W/m 23,0 km/h (4 Bft) 95,65 %
10.11.2017 04:20 7,5 C 7,2 C 6,1 C 97 % 15 lf 1017,6 hPa 0,0 l/m 0 min 0 min 0 W/m 18,8 km/h (3 Bft) 95,74 %
10.11.2017 04:22 7,5 C 7,2 C 6,1 C 97 % 15 lf 1017,6 hPa 0,0 l/m 0 min 0 min 0 W/m 23,0 km/h (4 Bft) 95,74 %
10.11.2017 04:24 7,5 C 7,2 C 6,1 C 97 % 15 lf 1017,5 hPa 0,0 l/m 0 min 0 min 0 W/m 25,1 km/h (4 Bft) 93,62 %
10.11.2017 04:26 7,5 C 7,2 C 6,1 C 97 % 15 lf 1017,5 hPa 0,0 l/m 0 min 0 min 0 W/m 20,9 km/h (4 Bft) 97,87 %
10.11.2017 04:28 7,5 C 7,2 C 6,1 C 97 % 15 lf 1017,4 hPa 0,0 l/m 0 min 0 min 0 W/m 18,8 km/h (3 Bft) 97,87 %
10.11.2017 04:30 7,5 C 7,2 C 6,1 C 97 % 15 lf 1017,4 hPa 0,0 l/m 0 min 0 min 0 W/m 31,4 km/h (5 Bft) 97,83 %
10.11.2017 04:32 7,5 C 7,2 C 6,1 C 97 % 15 lf 1017,3 hPa 0,0 l/m 0 min 0 min 0 W/m 16,7 km/h (3 Bft) 97,87 %
10.11.2017 04:34 7,5 C 7,2 C 6,1 C 97 % 15 lf 1017,2 hPa 0,0 l/m 0 min 0 min 0 W/m 20,9 km/h (4 Bft) 97,87 %
10.11.2017 04:36 7,5 C 7,2 C 6,1 C 97 % 15 lf 1017,2 hPa 0,0 l/m 0 min 0 min 0 W/m 20,9 km/h (4 Bft) 95,74 %
10.11.2017 04:38 7,5 C 7,2 C 6,1 C 97 % 15 lf 1017,2 hPa 0,0 l/m 0 min 0 min 0 W/m 23,0 km/h (4 Bft) 100,00 %
10.11.2017 04:40 7,5 C 7,2 C 6,1 C 97 % 15 lf 1017,2 hPa 0,0 l/m 0 min 0 min 0 W/m 20,9 km/h (4 Bft) 97,87 %
10.11.2017 04:42 7,6 C 7,2 C 6,1 C 97 % 15 lf 1017,2 hPa 0,0 l/m 0 min 0 min 0 W/m 20,9 km/h (4 Bft) 95,65 %
10.11.2017 04:44 7,5 C 7,2 C 6,1 C 97 % 15 lf 1017,3 hPa 0,0 l/m 0 min 0 min 0 W/m 18,8 km/h (3 Bft) 95,74 %
10.11.2017 04:46 7,6 C 7,2 C 6,1 C 97 % 15 lf 1017,4 hPa 0,0 l/m 0 min 0 min 0 W/m 20,9 km/h (4 Bft) 97,87 %
10.11.2017 04:48 7,6 C 7,2 C 6,1 C 97 % 15 lf 1017,4 hPa 0,0 l/m 0 min 0 min 0 W/m 23,0 km/h (4 Bft) 97,87 %
10.11.2017 04:50 7,6 C 7,2 C 6,1 C 97 % 15 lf 1017,3 hPa 0,0 l/m 0 min 0 min 0 W/m 20,9 km/h (4 Bft) 97,87 %
10.11.2017 04:52 7,6 C 7,2 C 6,1 C 97 % 15 lf 1017,3 hPa 0,0 l/m 0 min 0 min 0 W/m 23,0 km/h (4 Bft) 100,00 %
10.11.2017 04:54 7,6 C 7,2 C 6,1 C 97 % 15 lf 1017,2 hPa 0,0 l/m 0 min 0 min 0 W/m 31,4 km/h (5 Bft) 100,00 %
10.11.2017 04:56 7,6 C 7,2 C 6,1 C 97 % 15 lf 1017,3 hPa 0,0 l/m 0 min 0 min 0 W/m 14,6 km/h (3 Bft) 100,00 %
10.11.2017 04:58 7,6 C 7,2 C 6,1 C 97 % 15 lf 1017,1 hPa 0,0 l/m 0 min 0 min 0 W/m 29,3 km/h (5 Bft) 100,00 %
10.11.2017 05:00 7,6 C 7,2 C 6,1 C 97 % 15 lf 1017,1 hPa 0,0 l/m 0 min 0 min 0 W/m 29,3 km/h (5 Bft) 93,62 %
10.11.2017 05:02 7,6 C 7,2 C 6,1 C 97 % 15 lf 1017,2 hPa 0,0 l/m 0 min 0 min 0 W/m 27,2 km/h (4 Bft) 97,87 %
10.11.2017 05:04 7,6 C 7,2 C 6,1 C 97 % 15 lf 1017,1 hPa 0,0 l/m 0 min 0 min 0 W/m 29,3 km/h (5 Bft) 100,00 %
10.11.2017 05:06 7,6 C 7,2 C 6,1 C 97 % 15 lf 1017,1 hPa 0,0 l/m 0 min 0 min 0 W/m 20,9 km/h (4 Bft) 97,83 %
10.11.2017 05:08 7,6 C 7,2 C 6,1 C 97 % 15 lf 1017,1 hPa 0,0 l/m 0 min 0 min 0 W/m 20,9 km/h (4 Bft) 97,87 %
10.11.2017 05:10 7,6 C 7,2 C 6,1 C 97 % 15 lf 1017,2 hPa 0,0 l/m 0 min 0 min 0 W/m 33,5 km/h (5 Bft) 97,87 %
10.11.2017 05:12 7,6 C 7,2 C 6,1 C 97 % 15 lf 1017,0 hPa 0,0 l/m 0 min 0 min 0 W/m 25,1 km/h (4 Bft) 100,00 %
10.11.2017 05:14 7,6 C 7,2 C 6,1 C 97 % 15 lf 1016,9 hPa 0,0 l/m 0 min 0 min 0 W/m 27,2 km/h (4 Bft) 97,87 %
10.11.2017 05:16 7,6 C 7,2 C 6,1 C 97 % 15 lf 1016,9 hPa 0,0 l/m 0 min 0 min 0 W/m 23,0 km/h (4 Bft) 100,00 %
10.11.2017 05:18 7,6 C 7,2 C 6,1 C 97 % 15 lf 1017,0 hPa 0,0 l/m 0 min 0 min 0 W/m 20,9 km/h (4 Bft) 97,87 %
10.11.2017 05:20 7,6 C 7,2 C 6,1 C 97 % 15 lf 1017,0 hPa 0,0 l/m 0 min 0 min 0 W/m 25,1 km/h (4 Bft) 100,00 %
10.11.2017 05:22 7,6 C 7,2 C 6,1 C 97 % 15 lf 1016,9 hPa 0,0 l/m 0 min 0 min 0 W/m 23,0 km/h (4 Bft) 97,87 %
10.11.2017 05:24 7,6 C 7,2 C 6,1 C 97 % 15 lf 1017,1 hPa 0,0 l/m 0 min 0 min 0 W/m 27,2 km/h (4 Bft) 100,00 %
10.11.2017 05:26 7,6 C 7,2 C 6,1 C 97 % 15 lf 1017,1 hPa 0,0 l/m 0 min 0 min 0 W/m 27,2 km/h (4 Bft) 97,87 %
10.11.2017 05:28 7,6 C 7,2 C 6,1 C 97 % 15 lf 1017,1 hPa 0,0 l/m 0 min 0 min 0 W/m 27,2 km/h (4 Bft) 100,00 %
10.11.2017 05:30 7,6 C 7,2 C 6,1 C 97 % 15 lf 1017,0 hPa 0,0 l/m 0 min 0 min 0 W/m 25,1 km/h (4 Bft) 100,00 %
10.11.2017 05:32 7,6 C 7,2 C 6,1 C 97 % 15 lf 1017,0 hPa 0,0 l/m 0 min 0 min 0 W/m 18,8 km/h (3 Bft) 97,87 %
10.11.2017 05:34 7,6 C 7,2 C 6,1 C 97 % 15 lf 1016,9 hPa 0,0 l/m 0 min 0 min 0 W/m 27,2 km/h (4 Bft) 100,00 %
10.11.2017 05:35 7,6 C 7,2 C 6,1 C 97 % 15 lf 1016,8 hPa 0,0 l/m 0 min 0 min 0 W/m 27,2 km/h (4 Bft) 100,00 %
10.11.2017 05:40 7,6 C 7,2 C 6,1 C 97 % 15 lf 1016,8 hPa 0,0 l/m 0 min 0 min 0 W/m 29,3 km/h (5 Bft) 100,00 %
10.11.2017 05:42 7,6 C 7,2 C 6,1 C 97 % 15 lf 1016,7 hPa 0,0 l/m 0 min 0 min 0 W/m 20,9 km/h (4 Bft) 93,62 %
10.11.2017 05:44 7,6 C 7,2 C 6,7 C 97 % 15 lf 1016,7 hPa 0,0 l/m 0 min 0 min 0 W/m 29,3 km/h (5 Bft) 93,62 %
10.11.2017 05:46 7,6 C 7,2 C 6,7 C 97 % 15 lf 1016,7 hPa 0,0 l/m 0 min 0 min 0 W/m 18,8 km/h (3 Bft) 95,74 %
10.11.2017 05:48 7,6 C 7,2 C 6,7 C 97 % 15 lf 1016,6 hPa 0,0 l/m 0 min 0 min 0 W/m 16,7 km/h (3 Bft) 95,65 %
10.11.2017 05:50 7,6 C 7,2 C 6,7 C 97 % 15 lf 1016,7 hPa 0,0 l/m 0 min 0 min 0 W/m 25,1 km/h (4 Bft) 95,74 %
10.11.2017 05:52 7,7 C 7,2 C 6,7 C 97 % 15 lf 1016,7 hPa 0,0 l/m 0 min 0 min 0 W/m 20,9 km/h (4 Bft) 97,87 %
10.11.2017 05:54 7,6 C 7,2 C 6,7 C 97 % 15 lf 1016,6 hPa 0,0 l/m 0 min 0 min 0 W/m 16,7 km/h (3 Bft) 93,62 %
10.11.2017 05:56 7,7 C 7,2 C 6,7 C 97 % 15 lf 1016,6 hPa 0,0 l/m 0 min 0 min 0 W/m 18,8 km/h (3 Bft) 95,74 %
10.11.2017 05:58 7,7 C 7,2 C 6,7 C 97 % 15 lf 1016,6 hPa 0,0 l/m 0 min 0 min 0 W/m 18,8 km/h (3 Bft) 97,87 %
10.11.2017 06:00 7,6 C 7,2 C 6,7 C 97 % 15 lf 1016,6 hPa 0,0 l/m 0 min 0 min 0 W/m 20,9 km/h (4 Bft) 95,74 %
10.11.2017 06:02 7,7 C 7,2 C 6,7 C 97 % 15 lf 1016,4 hPa 0,0 l/m 0 min 0 min 0 W/m 20,9 km/h (4 Bft) 95,65 %
10.11.2017 06:04 7,7 C 7,2 C 6,7 C 97 % 15 lf 1016,4 hPa 0,0 l/m 0 min 0 min 0 W/m 16,7 km/h (3 Bft) 97,87 %
10.11.2017 06:06 7,7 C 7,2 C 6,7 C 97 % 15 lf 1016,4 hPa 0,0 l/m 0 min 0 min 0 W/m 20,9 km/h (4 Bft) 95,74 %
10.11.2017 06:10 7,7 C 7,2 C 6,7 C 97 % 15 lf 1016,2 hPa 0,0 l/m 0 min 0 min 0 W/m 23,0 km/h (4 Bft) 96,51 %
10.11.2017 06:12 7,7 C 7,2 C 6,7 C 97 % 15 lf 1016,2 hPa 0,0 l/m 0 min 0 min 0 W/m 14,6 km/h (3 Bft) 97,87 %
10.11.2017 06:14 7,7 C 7,2 C 6,7 C 97 % 15 lf 1016,2 hPa 0,0 l/m 0 min 0 min 0 W/m 16,7 km/h (3 Bft) 93,62 %
10.11.2017 06:16 7,7 C 7,2 C 6,7 C 97 % 15 lf 1016,3 hPa 0,0 l/m 0 min 0 min 0 W/m 14,6 km/h (3 Bft) 95,65 %
10.11.2017 06:18 7,7 C 7,2 C 6,7 C 97 % 15 lf 1016,2 hPa 0,0 l/m 0 min 0 min 0 W/m 23,0 km/h (4 Bft) 95,74 %
10.11.2017 06:20 7,7 C 7,2 C 6,7 C 97 % 15 lf 1016,2 hPa 0,0 l/m 0 min 0 min 0 W/m 23,0 km/h (4 Bft) 93,62 %
10.11.2017 06:22 7,7 C 7,2 C 6,7 C 97 % 15 lf 1016,2 hPa 0,0 l/m 0 min 0 min 0 W/m 27,2 km/h (4 Bft) 87,23 %
10.11.2017 06:24 7,7 C 7,2 C 6,7 C 97 % 15 lf 1016,2 hPa 0,0 l/m 0 min 0 min 0 W/m 23,0 km/h (4 Bft) 97,87 %
10.11.2017 06:26 7,7 C 7,2 C 6,7 C 97 % 15 lf 1016,1 hPa 0,0 l/m 0 min 0 min 0 W/m 29,3 km/h (5 Bft) 95,74 %
10.11.2017 06:28 7,7 C 7,2 C 6,7 C 97 % 15 lf 1016,0 hPa 0,0 l/m 0 min 0 min 0 W/m 31,4 km/h (5 Bft) 93,48 %
10.11.2017 06:30 7,7 C 7,2 C 6,7 C 97 % 15 lf 1016,0 hPa 0,0 l/m 0 min 0 min 0 W/m 18,8 km/h (3 Bft) 95,74 %
10.11.2017 06:32 7,7 C 7,2 C 6,7 C 97 % 15 lf 1015,9 hPa 0,0 l/m 0 min 0 min 0 W/m 23,0 km/h (4 Bft) 95,74 %
10.11.2017 06:34 7,7 C 7,2 C 6,7 C 97 % 15 lf 1015,9 hPa 0,0 l/m 0 min 0 min 0 W/m 14,6 km/h (3 Bft) 95,74 %
10.11.2017 06:36 7,7 C 7,2 C 6,7 C 97 % 15 lf 1015,8 hPa 0,0 l/m 0 min 0 min 0 W/m 20,9 km/h (4 Bft) 95,74 %
10.11.2017 06:38 7,7 C 7,2 C 6,7 C 97 % 15 lf 1015,9 hPa 0,0 l/m 0 min 0 min 0 W/m 18,8 km/h (3 Bft) 89,36 %
10.11.2017 06:40 7,7 C 7,2 C 6,7 C 97 % 15 lf 1015,9 hPa 0,0 l/m 0 min 0 min 0 W/m 12,6 km/h (3 Bft) 95,65 %
10.11.2017 06:42 7,7 C 7,2 C 6,7 C 97 % 15 lf 1015,9 hPa 0,0 l/m 0 min 0 min 0 W/m 18,8 km/h (3 Bft) 95,74 %
10.11.2017 06:44 7,7 C 7,2 C 6,7 C 97 % 14 lf 1016,0 hPa 0,0 l/m 0 min 0 min 0 W/m 18,8 km/h (3 Bft) 93,62 %
10.11.2017 06:46 7,7 C 7,2 C 6,7 C 97 % 14 lf 1015,9 hPa 0,0 l/m 0 min 0 min 0 W/m 18,8 km/h (3 Bft) 97,87 %
10.11.2017 06:48 7,7 C 7,2 C 6,7 C 97 % 13 lf 1015,8 hPa 0,0 l/m 0 min 0 min 0 W/m 23,0 km/h (4 Bft) 97,87 %
10.11.2017 06:50 7,7 C 7,2 C 6,7 C 97 % 12 lf 1015,8 hPa 0,0 l/m 0 min 0 min 0 W/m 23,0 km/h (4 Bft) 97,87 %
10.11.2017 06:52 7,7 C 7,2 C 6,7 C 97 % 12 lf 1015,8 hPa 0,0 l/m 0 min 0 min 0 W/m 18,8 km/h (3 Bft) 97,83 %
10.11.2017 06:54 7,7 C 7,2 C 6,7 C 97 % 11 lf 1015,7 hPa 0,0 l/m 0 min 0 min 0 W/m 18,8 km/h (3 Bft) 95,74 %
10.11.2017 06:56 7,7 C 7,2 C 6,7 C 97 % 11 lf 1015,6 hPa 0,0 l/m 0 min 0 min 0 W/m 16,7 km/h (3 Bft) 91,49 %
10.11.2017 06:58 7,7 C 7,2 C 6,7 C 97 % 10 lf 1015,8 hPa 0,0 l/m 0 min 0 min 0 W/m 14,6 km/h (3 Bft) 95,74 %
10.11.2017 07:00 7,8 C 7,2 C 6,7 C 97 % 9 lf 1015,7 hPa 0,0 l/m 0 min 0 min 0 W/m 18,8 km/h (3 Bft) 91,49 %
10.11.2017 07:02 7,8 C 7,2 C 6,7 C 97 % 9 lf 1015,7 hPa 0,0 l/m 0 min 0 min 0 W/m 23,0 km/h (4 Bft) 93,62 %
10.11.2017 07:04 7,8 C 7,2 C 6,7 C 97 % 8 lf 1015,7 hPa 0,0 l/m 0 min 0 min 0 W/m 25,1 km/h (4 Bft) 95,65 %
10.11.2017 07:06 7,8 C 7,2 C 6,7 C 97 % 6 lf 1015,7 hPa 0,0 l/m 0 min 0 min 0 W/m 27,2 km/h (4 Bft) 95,74 %
10.11.2017 07:08 7,8 C 7,2 C 6,7 C 97 % 4 lf 1015,6 hPa 0,0 l/m 0 min 0 min 0 W/m 27,2 km/h (4 Bft) 93,62 %
10.11.2017 07:10 7,8 C 7,2 C 6,7 C 97 % 4 lf 1015,6 hPa 0,0 l/m 0 min 0 min 0 W/m 31,4 km/h (5 Bft) 95,74 %
10.11.2017 07:12 7,8 C 7,2 C 6,7 C 97 % 3 lf 1015,6 hPa 0,0 l/m 0 min 0 min 0 W/m 23,0 km/h (4 Bft) 93,62 %
10.11.2017 07:14 7,8 C 7,8 C 6,7 C 97 % 3 lf 1015,5 hPa 0,0 l/m 0 min 0 min 0 W/m 23,0 km/h (4 Bft) 93,48 %
10.11.2017 07:16 7,8 C 7,8 C 6,7 C 97 % 2 lf 1015,5 hPa 0,0 l/m 0 min 0 min 0 W/m 25,1 km/h (4 Bft) 95,74 %
10.11.2017 07:18 7,8 C 7,8 C 6,7 C 97 % 2 lf 1015,5 hPa 0,0 l/m 0 min 0 min 0 W/m 20,9 km/h (4 Bft) 97,87 %
10.11.2017 07:20 7,8 C 7,8 C 6,7 C 97 % 11 lf 1015,4 hPa 0,0 l/m 0 min 0 min 0 W/m 23,0 km/h (4 Bft) 97,87 %
10.11.2017 07:22 7,8 C 7,2 C 6,7 C 97 % 15 lf 1015,4 hPa 0,0 l/m 0 min 2 min 0 W/m 16,7 km/h (3 Bft) 100,00 %
10.11.2017 07:24 7,9 C 7,2 C 6,7 C 97 % 15 lf 1015,4 hPa 0,0 l/m 0 min 2 min 0 W/m 25,1 km/h (4 Bft) 97,87 %
10.11.2017 07:26 7,9 C 7,2 C 6,7 C 97 % 15 lf 1015,5 hPa 0,0 l/m 0 min 2 min 0 W/m 20,9 km/h (4 Bft) 97,83 %
10.11.2017 07:28 7,9 C 7,2 C 6,7 C 97 % 15 lf 1015,4 hPa 0,0 l/m 0 min 0 min 0 W/m 16,7 km/h (3 Bft) 97,87 %
10.11.2017 07:30 7,9 C 7,2 C 6,7 C 97 % 15 lf 1015,3 hPa 0,0 l/m 0 min 0 min 0 W/m 23,0 km/h (4 Bft) 95,74 %
10.11.2017 07:32 7,9 C 7,2 C 6,7 C 97 % 15 lf 1015,4 hPa 0,0 l/m 0 min 0 min 0 W/m 25,1 km/h (4 Bft) 97,87 %
10.11.2017 07:34 7,9 C 7,2 C 6,7 C 97 % 15 lf 1015,4 hPa 0,0 l/m 0 min 0 min 0 W/m 18,8 km/h (3 Bft) 93,62 %
10.11.2017 07:36 7,9 C 7,2 C 6,7 C 97 % 15 lf 1015,4 hPa 0,0 l/m 0 min 0 min 0 W/m 29,3 km/h (5 Bft) 97,87 %
10.11.2017 07:38 7,9 C 7,2 C 6,7 C 97 % 15 lf 1015,4 hPa 0,0 l/m 0 min 0 min 0 W/m 29,3 km/h (5 Bft) 97,83 %
10.11.2017 07:40 7,9 C 7,2 C 6,7 C 97 % 15 lf 1015,3 hPa 0,0 l/m 0 min 0 min 0 W/m 23,0 km/h (4 Bft) 97,87 %
10.11.2017 07:42 7,9 C 7,2 C 6,7 C 97 % 15 lf 1015,4 hPa 0,0 l/m 0 min 0 min 0 W/m 27,2 km/h (4 Bft) 95,74 %
10.11.2017 07:44 7,9 C 7,2 C 6,7 C 97 % 15 lf 1015,3 hPa 0,0 l/m 0 min 0 min 0 W/m 20,9 km/h (4 Bft) 97,87 %
10.11.2017 07:46 7,9 C 7,2 C 6,7 C 97 % 15 lf 1015,4 hPa 0,0 l/m 0 min 0 min 0 W/m 29,3 km/h (5 Bft) 97,87 %
10.11.2017 07:48 7,9 C 7,2 C 6,7 C 97 % 15 lf 1015,4 hPa 0,0 l/m 0 min 0 min 0 W/m 27,2 km/h (4 Bft) 95,74 %
10.11.2017 07:50 7,9 C 7,2 C 6,7 C 97 % 15 lf 1015,4 hPa 0,0 l/m 0 min 0 min 0 W/m 20,9 km/h (4 Bft) 97,83 %
10.11.2017 07:52 7,9 C 7,2 C 6,7 C 97 % 15 lf 1015,4 hPa 0,0 l/m 0 min 0 min 0 W/m 25,1 km/h (4 Bft) 95,74 %
10.11.2017 07:54 7,9 C 7,2 C 6,7 C 97 % 15 lf 1015,3 hPa 0,0 l/m 0 min 2 min 0 W/m 23,0 km/h (4 Bft) 97,87 %
10.11.2017 07:56 7,9 C 7,2 C 6,7 C 97 % 15 lf 1015,3 hPa 0,0 l/m 0 min 2 min 0 W/m 23,0 km/h (4 Bft) 97,87 %
10.11.2017 07:58 7,9 C 7,2 C 6,7 C 97 % 15 lf 1015,3 hPa 0,2 l/m 0 min 2 min 0 W/m 20,9 km/h (4 Bft) 97,87 %
10.11.2017 08:00 7,9 C 7,2 C 6,7 C 97 % 15 lf 1015,2 hPa 0,0 l/m 0 min 2 min 0 W/m 25,1 km/h (4 Bft) 97,87 %
10.11.2017 08:02 7,9 C 7,2 C 6,7 C 97 % 15 lf 1015,2 hPa 0,0 l/m 0 min 2 min 0 W/m 20,9 km/h (4 Bft) 97,83 %
10.11.2017 08:04 7,9 C 7,2 C 6,7 C 97 % 15 lf 1015,2 hPa 0,0 l/m 0 min 2 min 0 W/m 23,0 km/h (4 Bft) 97,87 %
10.11.2017 08:06 7,9 C 7,2 C 6,7 C 97 % 15 lf 1015,2 hPa 0,0 l/m 0 min 0 min 0 W/m 18,8 km/h (3 Bft) 97,87 %
10.11.2017 08:08 7,9 C 7,2 C 6,7 C 97 % 15 lf 1015,3 hPa 0,0 l/m 0 min 0 min 0 W/m 16,7 km/h (3 Bft) 97,87 %
10.11.2017 08:10 7,9 C 7,2 C 6,7 C 97 % 15 lf 1015,3 hPa 0,0 l/m 0 min 0 min 0 W/m 18,8 km/h (3 Bft) 93,62 %
10.11.2017 08:12 7,9 C 7,2 C 6,7 C 97 % 15 lf 1015,2 hPa 0,0 l/m 0 min 0 min 0 W/m 18,8 km/h (3 Bft) 97,87 %
10.11.2017 08:14 7,9 C 7,2 C 6,7 C 97 % 15 lf 1015,3 hPa 0,0 l/m 0 min 0 min 0 W/m 20,9 km/h (4 Bft) 100,00 %
10.11.2017 08:16 7,9 C 7,2 C 6,7 C 97 % 15 lf 1015,3 hPa 0,0 l/m 0 min 0 min 0 W/m 20,9 km/h (4 Bft) 91,49 %
10.11.2017 08:18 7,9 C 7,2 C 6,7 C 97 % 15 lf 1015,3 hPa 0,0 l/m 0 min 0 min 4 W/m 18,8 km/h (3 Bft) 97,87 %
10.11.2017 08:20 7,9 C 7,2 C 6,7 C 97 % 15 lf 1015,3 hPa 0,0 l/m 0 min 0 min 5 W/m 14,6 km/h (3 Bft) 95,74 %
10.11.2017 08:22 7,9 C 7,2 C 6,7 C 97 % 15 lf 1015,3 hPa 0,0 l/m 0 min 0 min 5 W/m 18,8 km/h (3 Bft) 93,62 %
10.11.2017 08:24 7,9 C 7,2 C 6,7 C 97 % 15 lf 1015,3 hPa 0,0 l/m 0 min 0 min 5 W/m 25,1 km/h (4 Bft) 97,83 %
10.11.2017 08:26 7,9 C 7,2 C 6,7 C 97 % 15 lf 1015,4 hPa 0,0 l/m 0 min 0 min 5 W/m 20,9 km/h (4 Bft) 95,74 %
10.11.2017 08:28 7,9 C 7,2 C 6,7 C 97 % 15 lf 1015,4 hPa 0,0 l/m 0 min 0 min 5 W/m 27,2 km/h (4 Bft) 95,74 %
10.11.2017 08:30 7,9 C 7,2 C 6,7 C 97 % 15 lf 1015,4 hPa 0,0 l/m 0 min 0 min 5 W/m 20,9 km/h (4 Bft) 93,62 %
10.11.2017 08:32 7,9 C 7,2 C 6,7 C 97 % 15 lf 1015,3 hPa 0,0 l/m 0 min 0 min 7 W/m 20,9 km/h (4 Bft) 95,74 %
10.11.2017 08:34 7,9 C 7,2 C 6,7 C 97 % 15 lf 1015,3 hPa 0,0 l/m 0 min 0 min 9 W/m 18,8 km/h (3 Bft) 95,74 %
10.11.2017 08:36 7,9 C 7,2 C 6,7 C 97 % 15 lf 1015,3 hPa 0,0 l/m 0 min 0 min 11 W/m 20,9 km/h (4 Bft) 95,65 %
10.11.2017 08:38 7,9 C 7,2 C 6,7 C 97 % 15 lf 1015,3 hPa 0,0 l/m 0 min 0 min 10 W/m 27,2 km/h (4 Bft) 91,49 %
10.11.2017 08:40 7,9 C 7,8 C 6,7 C 97 % 15 lf 1015,3 hPa 0,0 l/m 0 min 0 min 11 W/m 18,8 km/h (3 Bft) 95,74 %
10.11.2017 08:42 7,9 C 7,8 C 6,7 C 97 % 15 lf 1015,3 hPa 0,0 l/m 0 min 0 min 11 W/m 18,8 km/h (3 Bft) 97,87 %
10.11.2017 08:44 7,9 C 7,8 C 6,7 C 97 % 15 lf 1015,2 hPa 0,0 l/m 0 min 0 min 13 W/m 20,9 km/h (4 Bft) 97,87 %
10.11.2017 08:46 8,0 C 7,8 C 6,7 C 97 % 15 lf 1015,1 hPa 0,0 l/m 0 min 0 min 14 W/m 23,0 km/h (4 Bft) 97,87 %
10.11.2017 08:48 8,0 C 7,8 C 6,7 C 97 % 15 lf 1015,1 hPa 0,0 l/m 0 min 0 min 15 W/m 29,3 km/h (5 Bft) 95,65 %
10.11.2017 08:50 8,0 C 7,8 C 6,7 C 97 % 15 lf 1015,0 hPa 0,0 l/m 0 min 0 min 18 W/m 18,8 km/h (3 Bft) 97,87 %
10.11.2017 08:52 8,0 C 7,8 C 6,7 C 97 % 15 lf 1015,0 hPa 0,0 l/m 0 min 0 min 18 W/m 20,9 km/h (4 Bft) 97,87 %
10.11.2017 08:54 8,0 C 7,8 C 6,7 C 97 % 15 lf 1015,0 hPa 0,0 l/m 0 min 0 min 19 W/m 25,1 km/h (4 Bft) 97,87 %
10.11.2017 08:56 8,0 C 7,8 C 6,7 C 97 % 15 lf 1015,1 hPa 0,0 l/m 0 min 0 min 21 W/m 29,3 km/h (5 Bft) 97,87 %
10.11.2017 08:58 8,0 C 7,8 C 6,7 C 97 % 15 lf 1014,9 hPa 0,0 l/m 0 min 0 min 17 W/m 29,3 km/h (5 Bft) 95,74 %
10.11.2017 09:00 8,1 C 7,8 C 6,7 C 97 % 15 lf 1014,9 hPa 0,0 l/m 0 min 0 min 13 W/m 35,6 km/h (5 Bft) 95,65 %
10.11.2017 09:02 8,1 C 7,8 C 6,7 C 97 % 15 lf 1014,9 hPa 0,0 l/m 0 min 0 min 11 W/m 29,3 km/h (5 Bft) 97,87 %
10.11.2017 09:04 8,1 C 7,8 C 6,7 C 97 % 15 lf 1014,9 hPa 0,0 l/m 0 min 0 min 11 W/m 25,1 km/h (4 Bft) 97,87 %
10.11.2017 09:06 8,1 C 7,8 C 6,7 C 97 % 15 lf 1014,8 hPa 0,0 l/m 0 min 0 min 11 W/m 20,9 km/h (4 Bft) 97,87 %
10.11.2017 09:08 8,1 C 7,8 C 6,7 C 97 % 15 lf 1014,8 hPa 0,0 l/m 0 min 0 min 11 W/m 33,5 km/h (5 Bft) 95,74 %
10.11.2017 09:10 8,1 C 7,8 C 6,7 C 97 % 15 lf 1014,8 hPa 0,0 l/m 0 min 0 min 10 W/m 25,1 km/h (4 Bft) 97,87 %
10.11.2017 09:12 8,1 C 7,8 C 6,7 C 97 % 15 lf 1014,8 hPa 0,0 l/m 0 min 2 min 9 W/m 29,3 km/h (5 Bft) 93,48 %
10.11.2017 09:14 8,1 C 7,8 C 6,7 C 97 % 15 lf 1014,7 hPa 0,0 l/m 0 min 2 min 9 W/m 31,4 km/h (5 Bft) 95,74 %
10.11.2017 09:16 8,1 C 7,8 C 6,7 C 97 % 15 lf 1014,7 hPa 0,0 l/m 0 min 2 min 11 W/m 27,2 km/h (4 Bft) 95,74 %
10.11.2017 09:18 8,1 C 7,8 C 6,7 C 97 % 15 lf 1014,6 hPa 0,0 l/m 0 min 2 min 11 W/m 23,0 km/h (4 Bft) 97,87 %
10.11.2017 09:20 8,1 C 7,8 C 6,7 C 97 % 15 lf 1014,5 hPa 0,0 l/m 0 min 0 min 15 W/m 23,0 km/h (4 Bft) 93,62 %
10.11.2017 09:22 8,1 C 7,8 C 6,7 C 97 % 15 lf 1014,5 hPa 0,0 l/m 0 min 0 min 16 W/m 20,9 km/h (4 Bft) 97,83 %
10.11.2017 09:24 8,2 C 7,8 C 6,7 C 97 % 15 lf 1014,5 hPa 0,0 l/m 0 min 2 min 21 W/m 33,5 km/h (5 Bft) 95,74 %
10.11.2017 09:26 8,2 C 7,8 C 7,2 C 97 % 15 lf 1014,4 hPa 0,0 l/m 0 min 2 min 26 W/m 27,2 km/h (4 Bft) 93,62 %
10.11.2017 09:28 8,2 C 7,8 C 7,2 C 97 % 15 lf 1014,4 hPa 0,0 l/m 0 min 2 min 27 W/m 25,1 km/h (4 Bft) 95,74 %
10.11.2017 09:30 8,2 C 7,8 C 7,2 C 97 % 15 lf 1014,3 hPa 0,0 l/m 0 min 0 min 26 W/m 27,2 km/h (4 Bft) 93,62 %
10.11.2017 09:32 8,2 C 7,8 C 7,2 C 97 % 15 lf 1014,3 hPa 0,0 l/m 0 min 2 min 29 W/m 31,4 km/h (5 Bft) 97,87 %
10.11.2017 09:34 8,2 C 7,8 C 7,2 C 97 % 15 lf 1014,3 hPa 0,0 l/m 0 min 2 min 26 W/m 23,0 km/h (4 Bft) 97,83 %
10.11.2017 09:36 8,2 C 7,8 C 7,2 C 97 % 15 lf 1014,3 hPa 0,0 l/m 0 min 2 min 25 W/m 18,8 km/h (3 Bft) 95,74 %
10.11.2017 09:38 8,3 C 7,8 C 7,2 C 97 % 15 lf 1014,2 hPa 0,0 l/m 0 min 0 min 20 W/m 20,9 km/h (4 Bft) 97,87 %
10.11.2017 09:40 8,3 C 7,8 C 7,2 C 97 % 15 lf 1014,2 hPa 0,0 l/m 0 min 0 min 18 W/m 29,3 km/h (5 Bft) 97,87 %
10.11.2017 09:42 8,3 C 7,8 C 7,2 C 97 % 15 lf 1014,2 hPa 0,0 l/m 0 min 0 min 18 W/m 29,3 km/h (5 Bft) 97,87 %
10.11.2017 09:44 8,3 C 7,8 C 7,2 C 97 % 15 lf 1014,2 hPa 0,0 l/m 0 min 0 min 16 W/m 31,4 km/h (5 Bft) 97,87 %
10.11.2017 09:46 8,3 C 7,8 C 7,2 C 97 % 15 lf 1014,1 hPa 0,0 l/m 0 min 0 min 14 W/m 29,3 km/h (5 Bft) 95,65 %
10.11.2017 09:48 8,3 C 7,8 C 7,2 C 97 % 15 lf 1014,1 hPa 0,0 l/m 0 min 0 min 18 W/m 20,9 km/h (4 Bft) 95,74 %
10.11.2017 09:50 8,3 C 8,3 C 7,2 C 97 % 15 lf 1014,1 hPa 0,0 l/m 0 min 0 min 29 W/m 23,0 km/h (4 Bft) 95,74 %
10.11.2017 09:52 8,4 C 8,3 C 7,2 C 97 % 15 lf 1014,0 hPa 0,0 l/m 0 min 0 min 42 W/m 29,3 km/h (5 Bft) 97,87 %
10.11.2017 09:54 8,4 C 8,3 C 7,2 C 97 % 15 lf 1014,0 hPa 0,0 l/m 0 min 0 min 54 W/m 27,2 km/h (4 Bft) 97,87 %
10.11.2017 09:56 8,4 C 8,3 C 7,8 C 97 % 15 lf 1014,0 hPa 0,0 l/m 0 min 0 min 78 W/m 31,4 km/h (5 Bft) 97,87 %
10.11.2017 09:58 8,4 C 8,3 C 7,8 C 97 % 15 lf 1014,0 hPa 0,0 l/m 0 min 0 min 55 W/m 27,2 km/h (4 Bft) 97,83 %
10.11.2017 10:00 8,5 C 8,3 C 7,8 C 97 % 15 lf 1014,1 hPa 0,0 l/m 0 min 0 min 50 W/m 31,4 km/h (5 Bft) 95,74 %
10.11.2017 10:02 8,5 C 8,3 C 7,8 C 97 % 15 lf 1014,0 hPa 0,0 l/m 0 min 0 min 71 W/m 27,2 km/h (4 Bft) 95,74 %
10.11.2017 10:04 8,6 C 8,3 C 7,8 C 97 % 15 lf 1014,0 hPa 0,0 l/m 0 min 0 min 71 W/m 23,0 km/h (4 Bft) 97,87 %
10.11.2017 10:06 8,6 C 8,9 C 7,8 C 97 % 15 lf 1014,0 hPa 0,0 l/m 0 min 0 min 65 W/m 18,8 km/h (3 Bft) 95,74 %
10.11.2017 10:08 8,6 C 8,9 C 7,8 C 97 % 15 lf 1013,9 hPa 0,0 l/m 0 min 0 min 62 W/m 16,7 km/h (3 Bft) 97,87 %
10.11.2017 10:10 8,7 C 8,9 C 7,8 C 97 % 14 lf 1014,0 hPa 0,0 l/m 0 min 0 min 67 W/m 25,1 km/h (4 Bft) 97,83 %
10.11.2017 10:12 8,7 C 8,9 C 7,8 C 97 % 13 lf 1013,9 hPa 0,0 l/m 0 min 0 min 77 W/m 25,1 km/h (4 Bft) 97,87 %
10.11.2017 10:14 8,7 C 8,9 C 7,8 C 97 % 11 lf 1013,9 hPa 0,0 l/m 0 min 0 min 64 W/m 23,0 km/h (4 Bft) 97,87 %
10.11.2017 10:16 8,7 C 8,9 C 7,8 C 97 % 7 lf 1013,9 hPa 0,0 l/m 0 min 0 min 50 W/m 29,3 km/h (5 Bft) 95,74 %
10.11.2017 10:18 8,8 C 8,9 C 7,8 C 97 % 4 lf 1013,9 hPa 0,0 l/m 0 min 0 min 46 W/m 29,3 km/h (5 Bft) 95,74 %
10.11.2017 10:20 8,8 C 8,9 C 7,8 C 97 % 3 lf 1013,9 hPa 0,0 l/m 0 min 0 min 41 W/m 23,0 km/h (4 Bft) 97,87 %
10.11.2017 10:22 8,8 C 8,9 C 7,8 C 97 % 2 lf 1013,8 hPa 0,0 l/m 0 min 0 min 42 W/m 23,0 km/h (4 Bft) 95,65 %
10.11.2017 10:24 8,8 C 8,9 C 7,8 C 97 % 1 lf 1013,7 hPa 0,0 l/m 0 min 0 min 41 W/m 18,8 km/h (3 Bft) 97,87 %
10.11.2017 10:26 8,8 C 8,9 C 7,8 C 97 % 0 lf 1013,7 hPa 0,0 l/m 0 min 0 min 42 W/m 23,0 km/h (4 Bft) 97,87 %
10.11.2017 10:28 8,9 C 9,4 C 7,8 C 97 % 0 lf 1013,7 hPa 0,0 l/m 0 min 0 min 49 W/m 31,4 km/h (5 Bft) 95,74 %
10.11.2017 10:30 8,9 C 9,4 C 7,8 C 97 % 0 lf 1013,6 hPa 0,0 l/m 0 min 0 min 52 W/m 37,7 km/h (5 Bft) 97,87 %
10.11.2017 10:32 8,9 C 9,4 C 7,8 C 97 % 0 lf 1013,6 hPa 0,0 l/m 0 min 0 min 47 W/m 29,3 km/h (5 Bft) 100,00 %
10.11.2017 10:34 8,9 C 9,4 C 7,8 C 97 % 0 lf 1013,5 hPa 0,0 l/m 0 min 0 min 49 W/m 27,2 km/h (4 Bft) 100,00 %
10.11.2017 10:36 8,9 C 9,4 C 8,3 C 97 % 0 lf 1013,4 hPa 0,0 l/m 0 min 0 min 76 W/m 25,1 km/h (4 Bft) 100,00 %
10.11.2017 10:38 8,9 C 9,4 C 8,3 C 97 % 0 lf 1013,4 hPa 0,0 l/m 0 min 0 min 85 W/m 35,6 km/h (5 Bft) 97,87 %
10.11.2017 10:40 9,0 C 10,0 C 8,3 C 97 % 0 lf 1013,3 hPa 0,0 l/m 0 min 0 min 96 W/m 25,1 km/h (4 Bft) 100,00 %
10.11.2017 10:42 9,1 C 10,0 C 8,3 C 97 % 0 lf 1013,3 hPa 0,0 l/m 0 min 0 min 107 W/m 35,6 km/h (5 Bft) 100,00 %
10.11.2017 10:44 9,1 C 10,0 C 8,3 C 97 % 0 lf 1013,4 hPa 0,0 l/m 0 min 0 min 81 W/m 25,1 km/h (4 Bft) 100,00 %
10.11.2017 10:46 9,1 C 10,0 C 8,3 C 97 % 0 lf 1013,3 hPa 0,0 l/m 0 min 0 min 72 W/m 25,1 km/h (4 Bft) 100,00 %
10.11.2017 10:48 9,1 C 10,0 C 8,3 C 97 % 0 lf 1013,3 hPa 0,0 l/m 0 min 0 min 74 W/m 35,6 km/h (5 Bft) 97,56 %
10.11.2017 10:50 9,2 C 10,0 C 8,3 C 97 % 0 lf 1013,3 hPa 0,0 l/m 0 min 0 min 82 W/m 31,4 km/h (5 Bft) 95,74 %
10.11.2017 10:52 9,2 C 10,0 C 8,3 C 97 % 0 lf 1013,3 hPa 0,0 l/m 0 min 0 min 97 W/m 23,0 km/h (4 Bft) 95,74 %
10.11.2017 10:54 9,3 C 10,0 C 8,9 C 97 % 0 lf 1013,3 hPa 0,0 l/m 0 min 0 min 108 W/m 29,3 km/h (5 Bft) 95,74 %
10.11.2017 10:56 9,3 C 10,0 C 8,9 C 97 % 0 lf 1013,3 hPa 0,0 l/m 0 min 0 min 105 W/m 31,4 km/h (5 Bft) 95,65 %
10.11.2017 10:58 9,3 C 10,0 C 8,9 C 97 % 0 lf 1013,3 hPa 0,0 l/m 0 min 0 min 92 W/m 25,1 km/h (4 Bft) 97,87 %
10.11.2017 11:00 9,3 C 10,0 C 8,9 C 97 % 0 lf 1013,2 hPa 0,0 l/m 0 min 0 min 95 W/m 25,1 km/h (4 Bft) 97,87 %
10.11.2017 11:02 9,4 C 10,0 C 8,9 C 97 % 0 lf 1013,2 hPa 0,0 l/m 0 min 0 min 92 W/m 31,4 km/h (5 Bft) 97,87 %
10.11.2017 11:04 9,4 C 10,0 C 8,3 C 97 % 0 lf 1013,2 hPa 0,0 l/m 0 min 0 min 87 W/m 25,1 km/h (4 Bft) 97,87 %
10.11.2017 11:06 9,4 C 10,0 C 8,9 C 96 % 0 lf 1013,2 hPa 0,0 l/m 0 min 0 min 103 W/m 37,7 km/h (5 Bft) 97,87 %
10.11.2017 11:08 9,4 C 10,6 C 8,9 C 96 % 0 lf 1013,1 hPa 0,0 l/m 2 min 0 min 174 W/m 27,2 km/h (4 Bft) 97,83 %
10.11.2017 11:10 9,5 C 11,1 C 9,4 C 96 % 0 lf 1013,2 hPa 0,0 l/m 2 min 0 min 230 W/m 23,0 km/h (4 Bft) 93,62 %
10.11.2017 11:12 9,6 C 11,1 C 9,4 C 96 % 0 lf 1013,2 hPa 0,0 l/m 2 min 0 min 201 W/m 27,2 km/h (4 Bft) 97,87 %
10.11.2017 11:14 9,6 C 11,1 C 9,4 C 96 % 0 lf 1013,1 hPa 0,0 l/m 2 min 0 min 178 W/m 33,5 km/h (5 Bft) 95,74 %
10.11.2017 11:16 9,7 C 11,1 C 9,4 C 96 % 0 lf 1013,1 hPa 0,0 l/m 0 min 0 min 144 W/m 29,3 km/h (5 Bft) 97,87 %
10.11.2017 11:18 9,7 C 11,1 C 9,4 C 96 % 0 lf 1013,1 hPa 0,0 l/m 0 min 0 min 120 W/m 23,0 km/h (4 Bft) 95,74 %
10.11.2017 11:20 9,7 C 10,6 C 8,9 C 96 % 0 lf 1013,0 hPa 0,0 l/m 0 min 0 min 111 W/m 29,3 km/h (5 Bft) 96,15 %
10.11.2017 11:22 9,8 C 10,6 C 8,9 C 96 % 0 lf 1013,0 hPa 0,0 l/m 0 min 0 min 101 W/m 23,0 km/h (4 Bft) 92,68 %
10.11.2017 11:24 9,8 C 10,6 C 8,9 C 96 % 0 lf 1013,0 hPa 0,0 l/m 0 min 0 min 104 W/m 23,0 km/h (4 Bft) 95,74 %
10.11.2017 11:26 9,8 C 10,6 C 8,9 C 96 % 0 lf 1012,9 hPa 0,0 l/m 0 min 0 min 96 W/m 25,1 km/h (4 Bft) 95,74 %
10.11.2017 11:28 9,8 C 11,1 C 8,9 C 96 % 0 lf 1013,0 hPa 0,0 l/m 0 min 0 min 123 W/m 16,7 km/h (3 Bft) 93,62 %
10.11.2017 11:30 9,8 C 11,1 C 9,4 C 96 % 0 lf 1012,9 hPa 0,0 l/m 0 min 0 min 136 W/m 29,3 km/h (5 Bft) 93,62 %
10.11.2017 11:32 9,9 C 11,1 C 9,4 C 95 % 0 lf 1012,7 hPa 0,0 l/m 0 min 0 min 139 W/m 27,2 km/h (4 Bft) 95,65 %
10.11.2017 11:34 9,9 C 11,1 C 9,4 C 95 % 0 lf 1012,7 hPa 0,0 l/m 0 min 0 min 142 W/m 23,0 km/h (4 Bft) 93,62 %
10.11.2017 11:36 9,9 C 11,1 C 9,4 C 95 % 3 lf 1012,7 hPa 0,0 l/m 0 min 0 min 124 W/m 29,3 km/h (5 Bft) 93,62 %
10.11.2017 11:38 9,9 C 10,6 C 8,9 C 95 % 7 lf 1012,7 hPa 0,0 l/m 0 min 0 min 100 W/m 25,1 km/h (4 Bft) 93,62 %
10.11.2017 11:40 10,0 C 10,0 C 8,9 C 95 % 12 lf 1012,7 hPa 0,0 l/m 0 min 2 min 83 W/m 18,8 km/h (3 Bft) 95,74 %
10.11.2017 11:42 10,0 C 10,0 C 8,9 C 95 % 12 lf 1012,6 hPa 0,0 l/m 0 min 0 min 67 W/m 23,0 km/h (4 Bft) 95,74 %
10.11.2017 11:44 10,0 C 10,0 C 8,9 C 95 % 9 lf 1012,6 hPa 0,0 l/m 0 min 0 min 54 W/m 20,9 km/h (4 Bft) 93,48 %
10.11.2017 11:46 10,0 C 10,0 C 8,3 C 95 % 5 lf 1012,5 hPa 0,0 l/m 0 min 0 min 55 W/m 27,2 km/h (4 Bft) 89,36 %
10.11.2017 11:48 10,0 C 10,0 C 8,3 C 95 % 3 lf 1012,6 hPa 0,0 l/m 0 min 0 min 57 W/m 27,2 km/h (4 Bft) 97,83 %
10.11.2017 11:50 10,0 C 10,0 C 8,3 C 94 % 2 lf 1012,5 hPa 0,0 l/m 0 min 0 min 37 W/m 27,2 km/h (4 Bft) 91,49 %
10.11.2017 11:52 10,0 C 10,0 C 8,3 C 94 % 1 lf 1012,5 hPa 0,0 l/m 0 min 0 min 51 W/m 31,4 km/h (5 Bft) 95,74 %
10.11.2017 11:54 10,0 C 10,0 C 8,3 C 94 % 0 lf 1012,5 hPa 0,0 l/m 0 min 0 min 70 W/m 27,2 km/h (4 Bft) 93,48 %
10.11.2017 11:56 10,0 C 10,0 C 8,3 C 94 % 0 lf 1012,5 hPa 0,0 l/m 0 min 0 min 65 W/m 27,2 km/h (4 Bft) 97,87 %
10.11.2017 11:58 10,0 C 10,6 C 8,9 C 94 % 0 lf 1012,4 hPa 0,0 l/m 0 min 0 min 67 W/m 23,0 km/h (4 Bft) 91,49 %
10.11.2017 12:00 10,0 C 10,6 C 8,9 C 94 % 1 lf 1012,4 hPa 0,0 l/m 0 min 0 min 59 W/m 27,2 km/h (4 Bft) 91,49 %
10.11.2017 12:02 10,0 C 10,6 C 8,9 C 94 % 5 lf 1012,3 hPa 0,0 l/m 0 min 2 min 59 W/m 35,6 km/h (5 Bft) 93,62 %
10.11.2017 12:04 10,0 C 10,0 C 8,3 C 94 % 5 lf 1012,3 hPa 0,0 l/m 0 min 2 min 48 W/m 35,6 km/h (5 Bft) 92,59 %
10.11.2017 12:06 10,0 C 10,0 C 8,3 C 94 % 4 lf 1012,4 hPa 0,0 l/m 0 min 2 min 47 W/m 29,3 km/h (5 Bft) 91,49 %
10.11.2017 12:10 10,0 C 10,0 C 8,3 C 94 % 4 lf 1012,3 hPa 0,0 l/m 0 min 0 min 41 W/m 29,3 km/h (5 Bft) 95,24 %
10.11.2017 12:12 10,0 C 10,0 C 8,3 C 94 % 10 lf 1012,3 hPa 0,0 l/m 0 min 2 min 46 W/m 29,3 km/h (5 Bft) 95,74 %
10.11.2017 12:14 10,1 C 10,0 C 8,3 C 94 % 15 lf 1012,3 hPa 0,0 l/m 0 min 2 min 54 W/m 16,7 km/h (3 Bft) 93,62 %
10.11.2017 12:16 10,1 C 10,0 C 8,3 C 94 % 15 lf 1012,2 hPa 0,2 l/m 0 min 2 min 46 W/m 23,0 km/h (4 Bft) 93,62 %
10.11.2017 12:18 10,1 C 9,4 C 8,3 C 94 % 15 lf 1012,3 hPa 0,0 l/m 0 min 2 min 57 W/m 35,6 km/h (5 Bft) 91,30 %
10.11.2017 12:20 10,1 C 9,4 C 8,3 C 94 % 15 lf 1012,2 hPa 0,0 l/m 0 min 2 min 71 W/m 20,9 km/h (4 Bft) 91,53 %
10.11.2017 12:22 10,1 C 10,0 C 8,3 C 94 % 15 lf 1012,2 hPa 0,0 l/m 0 min 2 min 90 W/m 29,3 km/h (5 Bft) 91,43 %
10.11.2017 12:24 10,1 C 10,0 C 8,3 C 94 % 15 lf 1012,2 hPa 0,0 l/m 0 min 0 min 86 W/m 35,6 km/h (5 Bft) 95,74 %
10.11.2017 12:26 10,1 C 10,0 C 8,9 C 94 % 15 lf 1012,2 hPa 0,0 l/m 0 min 2 min 93 W/m 27,2 km/h (4 Bft) 95,74 %
10.11.2017 12:28 10,1 C 10,0 C 8,9 C 94 % 15 lf 1012,2 hPa 0,0 l/m 0 min 2 min 77 W/m 27,2 km/h (4 Bft) 95,65 %
10.11.2017 12:30 10,1 C 9,4 C 8,3 C 94 % 15 lf 1012,2 hPa 0,0 l/m 0 min 2 min 73 W/m 20,9 km/h (4 Bft) 95,74 %
10.11.2017 12:32 10,1 C 9,4 C 8,3 C 94 % 15 lf 1012,2 hPa 0,0 l/m 0 min 2 min 57 W/m 25,1 km/h (4 Bft) 97,87 %
10.11.2017 12:34 10,1 C 9,4 C 8,3 C 94 % 15 lf 1012,2 hPa 0,0 l/m 0 min 2 min 59 W/m 27,2 km/h (4 Bft) 93,62 %
10.11.2017 12:36 10,1 C 9,4 C 8,3 C 94 % 15 lf 1012,2 hPa 0,0 l/m 0 min 2 min 53 W/m 33,5 km/h (5 Bft) 93,62 %
10.11.2017 12:38 10,1 C 9,4 C 8,3 C 94 % 15 lf 1012,2 hPa 0,0 l/m 0 min 2 min 39 W/m 39,7 km/h (6 Bft) 97,87 %
10.11.2017 12:40 10,0 C 9,4 C 8,3 C 94 % 15 lf 1012,2 hPa 0,0 l/m 0 min 2 min 36 W/m 29,3 km/h (5 Bft) 97,83 %
10.11.2017 12:42 10,0 C 9,4 C 8,3 C 94 % 15 lf 1012,2 hPa 0,0 l/m 0 min 2 min 42 W/m 27,2 km/h (4 Bft) 97,87 %
10.11.2017 12:44 9,9 C 9,4 C 8,3 C 94 % 15 lf 1012,2 hPa 0,0 l/m 0 min 2 min 30 W/m 27,2 km/h (4 Bft) 97,87 %
10.11.2017 12:46 9,9 C 9,4 C 8,3 C 94 % 15 lf 1012,2 hPa 0,0 l/m 0 min 2 min 32 W/m 31,4 km/h (5 Bft) 100,00 %
10.11.2017 12:48 9,9 C 8,9 C 8,3 C 94 % 15 lf 1012,2 hPa 0,0 l/m 0 min 2 min 36 W/m 39,7 km/h (6 Bft) 100,00 %
10.11.2017 12:50 9,8 C 8,9 C 7,8 C 94 % 15 lf 1012,2 hPa 0,0 l/m 0 min 2 min 41 W/m 39,7 km/h (6 Bft) 100,00 %
10.11.2017 12:52 9,7 C 8,9 C 7,8 C 94 % 15 lf 1012,2 hPa 0,0 l/m 0 min 2 min 47 W/m 37,7 km/h (5 Bft) 97,78 %
10.11.2017 12:54 9,7 C 8,9 C 7,8 C 94 % 15 lf 1012,3 hPa 0,0 l/m 0 min 2 min 42 W/m 31,4 km/h (5 Bft) 100,00 %
10.11.2017 12:56 9,7 C 8,9 C 7,8 C 94 % 15 lf 1012,2 hPa 0,0 l/m 0 min 2 min 46 W/m 37,7 km/h (5 Bft) 100,00 %
10.11.2017 12:58 9,6 C 8,9 C 7,8 C 94 % 15 lf 1012,2 hPa 0,0 l/m 0 min 2 min 30 W/m 18,8 km/h (3 Bft) 97,87 %
10.11.2017 13:00 9,6 C 8,9 C 7,8 C 95 % 15 lf 1012,3 hPa 0,0 l/m 0 min 0 min 29 W/m 20,9 km/h (4 Bft) 100,00 %
10.11.2017 13:02 9,6 C 8,9 C 8,3 C 95 % 15 lf 1012,2 hPa 0,0 l/m 0 min 0 min 54 W/m 20,9 km/h (4 Bft) 100,00 %
10.11.2017 13:04 9,6 C 8,9 C 8,3 C 95 % 15 lf 1012,2 hPa 0,0 l/m 0 min 0 min 65 W/m 31,4 km/h (5 Bft) 97,83 %
10.11.2017 13:06 9,6 C 9,4 C 8,3 C 95 % 15 lf 1012,2 hPa 0,0 l/m 0 min 0 min 82 W/m 35,6 km/h (5 Bft) 100,00 %
10.11.2017 13:08 9,6 C 9,4 C 8,3 C 95 % 15 lf 1012,1 hPa 0,0 l/m 0 min 2 min 106 W/m 33,5 km/h (5 Bft) 100,00 %
10.11.2017 13:10 9,6 C 9,4 C 8,3 C 95 % 15 lf 1012,1 hPa 0,0 l/m 0 min 2 min 139 W/m 31,4 km/h (5 Bft) 100,00 %
10.11.2017 13:12 9,6 C 9,4 C 8,3 C 95 % 15 lf 1012,1 hPa 0,2 l/m 0 min 2 min 145 W/m 39,7 km/h (6 Bft) 95,74 %
10.11.2017 13:14 9,6 C 9,4 C 8,9 C 95 % 15 lf 1012,1 hPa 0,0 l/m 0 min 2 min 111 W/m 14,6 km/h (3 Bft) 97,87 %
10.11.2017 13:16 9,6 C 9,4 C 8,9 C 95 % 15 lf 1012,1 hPa 0,0 l/m 0 min 0 min 74 W/m 29,3 km/h (5 Bft) 100,00 %
10.11.2017 13:18 9,6 C 9,4 C 8,3 C 95 % 15 lf 1012,0 hPa 0,0 l/m 0 min 2 min 76 W/m 29,3 km/h (5 Bft) 100,00 %
10.11.2017 13:20 9,6 C 9,4 C 8,9 C 95 % 15 lf 1012,0 hPa 0,0 l/m 0 min 0 min 137 W/m 23,0 km/h (4 Bft) 98,31 %
10.11.2017 13:22 9,6 C 10,0 C 8,9 C 95 % 15 lf 1012,1 hPa 0,0 l/m 0 min 2 min 105 W/m 33,5 km/h (5 Bft) 100,00 %
10.11.2017 13:24 9,7 C 10,0 C 8,9 C 95 % 15 lf 1012,1 hPa 0,0 l/m 0 min 0 min 94 W/m 27,2 km/h (4 Bft) 100,00 %
10.11.2017 13:26 9,7 C 9,4 C 8,9 C 95 % 15 lf 1012,0 hPa 0,0 l/m 0 min 0 min 87 W/m 23,0 km/h (4 Bft) 100,00 %
10.11.2017 13:28 9,7 C 10,6 C 8,9 C 95 % 15 lf 1011,8 hPa 0,0 l/m 0 min 0 min 108 W/m 25,1 km/h (4 Bft) 97,83 %
10.11.2017 13:30 9,7 C 10,6 C 8,9 C 95 % 15 lf 1011,8 hPa 0,0 l/m 0 min 0 min 125 W/m 29,3 km/h (5 Bft) 100,00 %
10.11.2017 13:32 9,7 C 11,1 C 8,9 C 95 % 15 lf 1011,8 hPa 0,0 l/m 0 min 2 min 133 W/m 27,2 km/h (4 Bft) 100,00 %
10.11.2017 13:34 9,7 C 11,7 C 8,9 C 96 % 15 lf 1011,7 hPa 0,0 l/m 2 min 0 min 275 W/m 31,4 km/h (5 Bft) 97,87 %
10.11.2017 13:36 9,8 C 11,1 C 8,9 C 96 % 15 lf 1011,7 hPa 0,0 l/m 0 min 0 min 133 W/m 27,2 km/h (4 Bft) 100,00 %
10.11.2017 13:38 9,8 C 10,6 C 8,9 C 96 % 15 lf 1011,6 hPa 0,0 l/m 0 min 0 min 94 W/m 31,4 km/h (5 Bft) 97,87 %
10.11.2017 13:40 9,8 C 10,6 C 8,9 C 96 % 15 lf 1011,6 hPa 0,0 l/m 0 min 2 min 109 W/m 31,4 km/h (5 Bft) 97,83 %
10.11.2017 13:42 9,8 C 10,6 C 8,3 C 96 % 15 lf 1011,5 hPa 0,0 l/m 0 min 0 min 88 W/m 27,2 km/h (4 Bft) 93,62 %
10.11.2017 13:44 9,7 C 10,0 C 8,3 C 96 % 15 lf 1011,5 hPa 0,0 l/m 0 min 2 min 73 W/m 33,5 km/h (5 Bft) 97,87 %
10.11.2017 13:46 9,7 C 10,0 C 8,3 C 95 % 15 lf 1011,4 hPa 0,0 l/m 0 min 0 min 68 W/m 31,4 km/h (5 Bft) 100,00 %
10.11.2017 13:48 9,7 C 10,0 C 8,3 C 95 % 15 lf 1011,5 hPa 0,0 l/m 0 min 2 min 65 W/m 35,6 km/h (5 Bft) 97,87 %
10.11.2017 13:50 9,7 C 10,0 C 8,3 C 95 % 15 lf 1011,4 hPa 0,0 l/m 0 min 2 min 68 W/m 27,2 km/h (4 Bft) 100,00 %
10.11.2017 13:52 9,7 C 10,6 C 8,3 C 95 % 15 lf 1011,5 hPa 0,0 l/m 0 min 0 min 94 W/m 29,3 km/h (5 Bft) 100,00 %
10.11.2017 13:54 9,7 C 11,1 C 8,9 C 95 % 15 lf 1011,4 hPa 0,0 l/m 0 min 0 min 115 W/m 25,1 km/h (4 Bft) 97,87 %
10.11.2017 13:56 9,8 C 11,1 C 8,9 C 95 % 15 lf 1011,5 hPa 0,0 l/m 2 min 0 min 157 W/m 29,3 km/h (5 Bft) 97,87 %
10.11.2017 13:58 9,8 C 11,7 C 8,9 C 95 % 15 lf 1011,5 hPa 0,0 l/m 2 min 0 min 193 W/m 31,4 km/h (5 Bft) 100,00 %
10.11.2017 14:00 9,8 C 11,7 C 9,4 C 95 % 14 lf 1011,5 hPa 0,0 l/m 2 min 0 min 213 W/m 31,4 km/h (5 Bft) 95,74 %
10.11.2017 14:02 9,9 C 11,7 C 9,4 C 95 % 10 lf 1011,5 hPa 0,0 l/m 2 min 0 min 224 W/m 29,3 km/h (5 Bft) 97,96 %
10.11.2017 14:04 10,0 C 12,2 C 10,0 C 95 % 3 lf 1011,5 hPa 0,0 l/m 2 min 0 min 301 W/m 27,2 km/h (4 Bft) 95,74 %
10.11.2017 14:06 10,1 C 12,2 C 10,0 C 95 % 1 lf 1011,5 hPa 0,0 l/m 2 min 0 min 161 W/m 29,3 km/h (5 Bft) 97,87 %
10.11.2017 14:08 10,1 C 11,7 C 9,4 C 95 % 0 lf 1011,6 hPa 0,0 l/m 0 min 0 min 124 W/m 35,6 km/h (5 Bft) 97,87 %
10.11.2017 14:10 10,2 C 11,1 C 9,4 C 95 % 0 lf 1011,6 hPa 0,0 l/m 0 min 2 min 136 W/m 29,3 km/h (5 Bft) 97,87 %
10.11.2017 14:12 10,2 C 11,1 C 8,9 C 95 % 0 lf 1011,5 hPa 0,0 l/m 0 min 2 min 87 W/m 33,5 km/h (5 Bft) 100,00 %
10.11.2017 14:14 10,2 C 10,6 C 8,9 C 95 % 0 lf 1011,4 hPa 0,0 l/m 0 min 2 min 93 W/m 31,4 km/h (5 Bft) 95,74 %
10.11.2017 14:16 10,2 C 10,6 C 8,9 C 95 % 0 lf 1011,4 hPa 0,0 l/m 0 min 2 min 124 W/m 31,4 km/h (5 Bft) 93,48 %
10.11.2017 14:18 10,2 C 11,1 C 8,9 C 95 % 0 lf 1011,5 hPa 0,0 l/m 0 min 0 min 116 W/m 27,2 km/h (4 Bft) 95,74 %
10.11.2017 14:20 10,2 C 11,1 C 8,9 C 95 % 0 lf 1011,4 hPa 0,0 l/m 0 min 0 min 81 W/m 37,7 km/h (5 Bft) 95,74 %
10.11.2017 14:22 10,2 C 11,1 C 8,9 C 94 % 0 lf 1011,4 hPa 0,0 l/m 0 min 0 min 105 W/m 35,6 km/h (5 Bft) 95,74 %
10.11.2017 14:24 10,2 C 11,7 C 8,9 C 94 % 0 lf 1011,3 hPa 0,0 l/m 0 min 0 min 93 W/m 37,7 km/h (5 Bft) 95,74 %
10.11.2017 14:26 10,2 C 13,3 C 8,9 C 94 % 0 lf 1011,2 hPa 0,0 l/m 2 min 0 min 177 W/m 31,4 km/h (5 Bft) 95,65 %
10.11.2017 14:28 10,2 C 13,3 C 8,9 C 94 % 0 lf 1011,2 hPa 0,0 l/m 2 min 0 min 225 W/m 31,4 km/h (5 Bft) 93,62 %
10.11.2017 14:30 10,3 C 14,4 C 8,9 C 94 % 0 lf 1011,1 hPa 0,0 l/m 2 min 0 min 212 W/m 27,2 km/h (4 Bft) 91,49 %
10.11.2017 14:32 10,3 C 15,6 C 8,9 C 94 % 0 lf 1011,2 hPa 0,0 l/m 2 min 0 min 207 W/m 23,0 km/h (4 Bft) 95,74 %
10.11.2017 14:34 10,4 C 15,6 C 8,9 C 94 % 0 lf 1011,2 hPa 0,0 l/m 2 min 0 min 201 W/m 29,3 km/h (5 Bft) 95,74 %
10.11.2017 14:36 10,5 C 14,4 C 8,9 C 94 % 0 lf 1011,3 hPa 0,0 l/m 2 min 0 min 200 W/m 41,8 km/h (6 Bft) 95,74 %
10.11.2017 14:38 10,6 C 14,4 C 8,9 C 94 % 0 lf 1011,2 hPa 0,0 l/m 2 min 0 min 182 W/m 27,2 km/h (4 Bft) 95,65 %
10.11.2017 14:40 10,6 C 15,0 C 9,4 C 93 % 0 lf 1011,2 hPa 0,0 l/m 2 min 2 min 258 W/m 27,2 km/h (4 Bft) 93,62 %
10.11.2017 14:42 10,7 C 15,6 C 9,4 C 93 % 1 lf 1011,2 hPa 0,0 l/m 2 min 0 min 291 W/m 35,6 km/h (5 Bft) 97,87 %
10.11.2017 14:44 10,8 C 15,0 C 10,0 C 93 % 0 lf 1011,2 hPa 0,0 l/m 2 min 0 min 278 W/m 31,4 km/h (5 Bft) 93,62 %
10.11.2017 14:46 10,9 C 15,6 C 10,0 C 93 % 0 lf 1011,3 hPa 0,0 l/m 2 min 0 min 290 W/m 31,4 km/h (5 Bft) 95,74 %
10.11.2017 14:48 11,0 C 16,1 C 10,0 C 93 % 0 lf 1011,3 hPa 0,0 l/m 2 min 0 min 261 W/m 23,0 km/h (4 Bft) 93,62 %
10.11.2017 14:50 11,0 C 15,0 C 10,0 C 92 % 0 lf 1011,4 hPa 0,0 l/m 2 min 0 min 229 W/m 27,2 km/h (4 Bft) 93,48 %
10.11.2017 14:52 11,1 C 15,0 C 10,0 C 92 % 0 lf 1011,3 hPa 0,0 l/m 2 min 0 min 256 W/m 33,5 km/h (5 Bft) 93,62 %
10.11.2017 14:54 11,1 C 13,9 C 10,0 C 92 % 0 lf 1011,2 hPa 0,0 l/m 2 min 0 min 191 W/m 29,3 km/h (5 Bft) 91,49 %
10.11.2017 14:56 11,1 C 12,8 C 10,0 C 91 % 0 lf 1011,2 hPa 0,0 l/m 2 min 0 min 137 W/m 39,7 km/h (6 Bft) 93,62 %
10.11.2017 14:58 11,1 C 12,2 C 10,0 C 91 % 0 lf 1011,3 hPa 0,0 l/m 2 min 0 min 158 W/m 37,7 km/h (5 Bft) 91,49 %
10.11.2017 15:00 11,1 C 12,8 C 10,0 C 91 % 0 lf 1011,2 hPa 0,0 l/m 2 min 0 min 197 W/m 33,5 km/h (5 Bft) 93,62 %
10.11.2017 15:02 11,1 C 13,3 C 10,0 C 90 % 0 lf 1011,1 hPa 0,0 l/m 2 min 0 min 226 W/m 31,4 km/h (5 Bft) 93,48 %
10.11.2017 15:04 11,1 C 13,9 C 10,0 C 90 % 0 lf 1011,4 hPa 0,0 l/m 2 min 0 min 225 W/m 48,1 km/h (6 Bft) 93,62 %
10.11.2017 15:06 11,1 C 13,3 C 10,0 C 90 % 0 lf 1011,4 hPa 0,0 l/m 2 min 0 min 232 W/m 35,6 km/h (5 Bft) 95,74 %
10.11.2017 15:08 11,1 C 12,8 C 10,0 C 89 % 0 lf 1011,3 hPa 0,0 l/m 2 min 0 min 235 W/m 35,6 km/h (5 Bft) 95,74 %
10.11.2017 15:10 11,1 C 12,8 C 10,0 C 89 % 0 lf 1011,4 hPa 0,0 l/m 2 min 0 min 221 W/m 31,4 km/h (5 Bft) 93,62 %
10.11.2017 15:12 11,1 C 12,2 C 10,0 C 89 % 0 lf 1011,4 hPa 0,0 l/m 2 min 0 min 192 W/m 43,9 km/h (6 Bft) 93,62 %
10.11.2017 15:14 11,2 C 12,2 C 10,0 C 89 % 0 lf 1011,5 hPa 0,0 l/m 2 min 0 min 144 W/m 23,0 km/h (4 Bft) 95,65 %
10.11.2017 15:16 11,2 C 11,7 C 9,4 C 89 % 0 lf 1011,5 hPa 0,0 l/m 0 min 0 min 90 W/m 35,6 km/h (5 Bft) 95,74 %
10.11.2017 15:18 11,1 C 11,7 C 9,4 C 88 % 0 lf 1011,6 hPa 0,0 l/m 0 min 0 min 45 W/m 25,1 km/h (4 Bft) 95,74 %
10.11.2017 15:20 11,1 C 11,1 C 8,9 C 88 % 2 lf 1011,9 hPa 0,0 l/m 0 min 0 min 22 W/m 25,1 km/h (4 Bft) 97,87 %
10.11.2017 15:22 11,1 C 11,1 C 8,9 C 88 % 11 lf 1011,9 hPa 0,0 l/m 0 min 2 min 12 W/m 25,1 km/h (4 Bft) 95,74 %
10.11.2017 15:24 11,0 C 10,6 C 8,9 C 88 % 15 lf 1011,8 hPa 0,0 l/m 0 min 2 min 10 W/m 25,1 km/h (4 Bft) 97,87 %
10.11.2017 15:26 11,0 C 10,6 C 8,9 C 88 % 15 lf 1012,0 hPa 0,0 l/m 0 min 2 min 13 W/m 20,9 km/h (4 Bft) 95,65 %
10.11.2017 15:28 11,0 C 10,6 C 8,3 C 88 % 15 lf 1012,1 hPa 0,0 l/m 0 min 2 min 20 W/m 23,0 km/h (4 Bft) 95,74 %
10.11.2017 15:30 10,9 C 10,6 C 8,3 C 88 % 15 lf 1012,2 hPa 0,0 l/m 0 min 2 min 31 W/m 25,1 km/h (4 Bft) 95,74 %
10.11.2017 15:32 10,9 C 10,6 C 8,3 C 88 % 15 lf 1012,2 hPa 0,0 l/m 0 min 0 min 41 W/m 16,7 km/h (3 Bft) 97,87 %
10.11.2017 15:34 10,9 C 10,6 C 8,3 C 88 % 15 lf 1012,2 hPa 0,0 l/m 0 min 0 min 42 W/m 20,9 km/h (4 Bft) 95,74 %
10.11.2017 15:36 10,8 C 10,6 C 8,3 C 89 % 15 lf 1012,1 hPa 0,0 l/m 0 min 2 min 41 W/m 43,9 km/h (6 Bft) 97,87 %
10.11.2017 15:38 10,7 C 10,6 C 8,3 C 88 % 15 lf 1012,2 hPa 0,0 l/m 0 min 2 min 45 W/m 41,8 km/h (6 Bft) 95,65 %
10.11.2017 15:40 10,6 C 10,6 C 8,3 C 87 % 15 lf 1012,3 hPa 0,0 l/m 0 min 2 min 54 W/m 35,6 km/h (5 Bft) 97,87 %
10.11.2017 15:42 10,6 C 10,6 C 8,3 C 86 % 13 lf 1012,3 hPa 0,0 l/m 2 min 2 min 84 W/m 25,1 km/h (4 Bft) 93,62 %
10.11.2017 15:44 10,6 C 10,6 C 8,3 C 86 % 11 lf 1012,3 hPa 0,0 l/m 2 min 0 min 84 W/m 27,2 km/h (4 Bft) 97,87 %
10.11.2017 15:46 10,5 C 11,1 C 8,3 C 85 % 3 lf 1012,3 hPa 0,0 l/m 2 min 2 min 92 W/m 31,4 km/h (5 Bft) 95,74 %
10.11.2017 15:48 10,4 C 11,1 C 8,3 C 84 % 0 lf 1012,3 hPa 0,0 l/m 2 min 2 min 100 W/m 27,2 km/h (4 Bft) 100,00 %
10.11.2017 15:50 10,4 C 11,1 C 8,3 C 82 % 0 lf 1012,3 hPa 0,0 l/m 2 min 2 min 84 W/m 33,5 km/h (5 Bft) 100,00 %
10.11.2017 15:52 10,4 C 10,6 C 7,8 C 81 % 0 lf 1012,3 hPa 0,0 l/m 2 min 2 min 74 W/m 39,7 km/h (6 Bft) 97,87 %
10.11.2017 15:54 10,3 C 10,6 C 7,8 C 80 % 0 lf 1012,3 hPa 0,0 l/m 0 min 2 min 54 W/m 23,0 km/h (4 Bft) 100,00 %
10.11.2017 15:56 10,3 C 10,6 C 7,2 C 79 % 0 lf 1012,4 hPa 0,0 l/m 0 min 0 min 47 W/m 29,3 km/h (5 Bft) 97,87 %
10.11.2017 15:58 10,3 C 10,6 C 7,2 C 79 % 0 lf 1012,3 hPa 0,0 l/m 0 min 0 min 44 W/m 27,2 km/h (4 Bft) 100,00 %
10.11.2017 16:00 10,3 C 10,0 C 7,2 C 78 % 0 lf 1012,3 hPa 0,0 l/m 0 min 0 min 39 W/m 27,2 km/h (4 Bft) 100,00 %
10.11.2017 16:02 10,3 C 10,0 C 7,2 C 78 % 0 lf 1012,3 hPa 0,0 l/m 0 min 2 min 38 W/m 33,5 km/h (5 Bft) 95,74 %
10.11.2017 16:04 10,2 C 10,0 C 7,2 C 78 % 0 lf 1012,3 hPa 0,0 l/m 0 min 0 min 42 W/m 25,1 km/h (4 Bft) 100,00 %
10.11.2017 16:06 10,2 C 10,0 C 7,2 C 78 % 0 lf 1012,4 hPa 0,0 l/m 0 min 0 min 38 W/m 20,9 km/h (4 Bft) 97,87 %
10.11.2017 16:08 10,2 C 10,0 C 7,2 C 78 % 0 lf 1012,4 hPa 0,0 l/m 0 min 2 min 33 W/m 33,5 km/h (5 Bft) 95,74 %
10.11.2017 16:10 10,2 C 10,0 C 7,2 C 78 % 0 lf 1012,4 hPa 0,0 l/m 0 min 2 min 28 W/m 43,9 km/h (6 Bft) 97,87 %
10.11.2017 16:12 10,2 C 10,0 C 7,2 C 78 % 0 lf 1012,4 hPa 0,0 l/m 0 min 2 min 24 W/m 39,7 km/h (6 Bft) 97,83 %
10.11.2017 16:14 10,2 C 10,0 C 7,2 C 77 % 0 lf 1012,4 hPa 0,0 l/m 0 min 2 min 24 W/m 39,7 km/h (6 Bft) 97,87 %
10.11.2017 16:16 10,1 C 10,0 C 7,2 C 77 % 0 lf 1012,5 hPa 0,0 l/m 0 min 2 min 20 W/m 39,7 km/h (6 Bft) 95,74 %
10.11.2017 16:18 10,1 C 10,0 C 7,2 C 77 % 0 lf 1012,5 hPa 0,0 l/m 0 min 0 min 18 W/m 33,5 km/h (5 Bft) 95,74 %
10.11.2017 16:20 10,1 C 9,4 C 7,2 C 77 % 0 lf 1012,6 hPa 0,0 l/m 0 min 0 min 16 W/m 37,7 km/h (5 Bft) 97,87 %
10.11.2017 16:22 10,0 C 9,4 C 6,7 C 76 % 0 lf 1012,5 hPa 0,0 l/m 0 min 0 min 18 W/m 43,9 km/h (6 Bft) 95,74 %
10.11.2017 16:24 10,0 C 9,4 C 6,7 C 76 % 0 lf 1012,6 hPa 0,0 l/m 0 min 0 min 15 W/m 37,7 km/h (5 Bft) 95,65 %
10.11.2017 16:26 9,9 C 9,4 C 6,7 C 75 % 0 lf 1012,6 hPa 0,0 l/m 0 min 0 min 12 W/m 46,0 km/h (6 Bft) 95,74 %
10.11.2017 16:28 9,9 C 9,4 C 6,7 C 75 % 0 lf 1012,6 hPa 0,0 l/m 0 min 0 min 11 W/m 48,1 km/h (6 Bft) 97,87 %
10.11.2017 16:30 9,8 C 9,4 C 6,7 C 75 % 0 lf 1012,6 hPa 0,0 l/m 0 min 0 min 11 W/m 46,0 km/h (6 Bft) 97,87 %
10.11.2017 16:32 9,8 C 9,4 C 6,7 C 75 % 0 lf 1012,7 hPa 0,0 l/m 0 min 0 min 11 W/m 35,6 km/h (5 Bft) 95,74 %
10.11.2017 16:34 9,8 C 9,4 C 6,7 C 75 % 0 lf 1012,8 hPa 0,0 l/m 0 min 0 min 9 W/m 31,4 km/h (5 Bft) 93,62 %
10.11.2017 16:36 9,7 C 8,9 C 6,7 C 76 % 0 lf 1012,8 hPa 0,0 l/m 0 min 0 min 9 W/m 33,5 km/h (5 Bft) 95,65 %
10.11.2017 16:38 9,7 C 8,9 C 6,7 C 76 % 0 lf 1012,9 hPa 0,0 l/m 0 min 0 min 10 W/m 23,0 km/h (4 Bft) 97,87 %
10.11.2017 16:40 9,7 C 8,9 C 6,1 C 76 % 0 lf 1012,9 hPa 0,0 l/m 0 min 0 min 9 W/m 20,9 km/h (4 Bft) 100,00 %
10.11.2017 16:42 9,6 C 8,9 C 6,1 C 76 % 0 lf 1012,9 hPa 0,0 l/m 0 min 0 min 7 W/m 31,4 km/h (5 Bft) 100,00 %
10.11.2017 16:44 9,6 C 8,9 C 6,1 C 77 % 0 lf 1012,9 hPa 0,0 l/m 0 min 0 min 7 W/m 31,4 km/h (5 Bft) 97,87 %
10.11.2017 16:46 9,5 C 8,9 C 6,1 C 77 % 0 lf 1012,9 hPa 0,0 l/m 0 min 0 min 7 W/m 27,2 km/h (4 Bft) 100,00 %
10.11.2017 16:48 9,5 C 8,3 C 6,1 C 78 % 0 lf 1013,0 hPa 0,0 l/m 0 min 0 min 5 W/m 20,9 km/h (4 Bft) 97,83 %
10.11.2017 16:50 9,4 C 8,3 C 6,1 C 78 % 0 lf 1013,0 hPa 0,0 l/m 0 min 0 min 5 W/m 18,8 km/h (3 Bft) 93,62 %
10.11.2017 16:52 9,4 C 8,3 C 6,1 C 78 % 0 lf 1013,1 hPa 0,0 l/m 0 min 0 min 5 W/m 23,0 km/h (4 Bft) 100,00 %
10.11.2017 16:54 9,3 C 8,3 C 6,1 C 78 % 0 lf 1013,0 hPa 0,0 l/m 0 min 0 min 5 W/m 20,9 km/h (4 Bft) 100,00 %
10.11.2017 16:56 9,2 C 8,3 C 6,1 C 78 % 0 lf 1013,1 hPa 0,0 l/m 0 min 0 min 0 W/m 20,9 km/h (4 Bft) 100,00 %
10.11.2017 16:58 9,2 C 8,3 C 5,6 C 79 % 0 lf 1013,1 hPa 0,0 l/m 0 min 0 min 0 W/m 18,8 km/h (3 Bft) 100,00 %
10.11.2017 17:00 9,2 C 7,8 C 5,6 C 79 % 0 lf 1013,1 hPa 0,0 l/m 0 min 0 min 0 W/m 14,6 km/h (3 Bft) 97,83 %
10.11.2017 17:02 9,2 C 7,8 C 5,6 C 79 % 0 lf 1013,1 hPa 0,0 l/m 0 min 0 min 0 W/m 14,6 km/h (3 Bft) 97,87 %
10.11.2017 17:04 9,1 C 7,8 C 5,6 C 79 % 0 lf 1013,1 hPa 0,0 l/m 0 min 0 min 0 W/m 12,6 km/h (3 Bft) 97,87 %
10.11.2017 17:06 9,1 C 7,8 C 5,6 C 79 % 0 lf 1013,1 hPa 0,0 l/m 0 min 0 min 0 W/m 14,6 km/h (3 Bft) 97,87 %
10.11.2017 17:08 9,0 C 7,8 C 5,6 C 79 % 0 lf 1013,2 hPa 0,0 l/m 0 min 0 min 0 W/m 16,7 km/h (3 Bft) 95,74 %
10.11.2017 17:10 8,9 C 7,8 C 5,6 C 80 % 0 lf 1013,2 hPa 0,0 l/m 0 min 0 min 0 W/m 12,6 km/h (3 Bft) 97,87 %
10.11.2017 17:12 8,9 C 7,8 C 5,6 C 80 % 0 lf 1013,2 hPa 0,0 l/m 0 min 0 min 0 W/m 14,6 km/h (3 Bft) 97,83 %
10.11.2017 17:14 8,9 C 7,2 C 5,0 C 80 % 0 lf 1013,2 hPa 0,0 l/m 0 min 0 min 0 W/m 16,7 km/h (3 Bft) 97,87 %
10.11.2017 17:16 8,8 C 7,8 C 5,6 C 80 % 0 lf 1013,3 hPa 0,0 l/m 0 min 0 min 0 W/m 16,7 km/h (3 Bft) 97,87 %
10.11.2017 17:18 8,7 C 7,8 C 5,6 C 80 % 0 lf 1013,4 hPa 0,0 l/m 0 min 0 min 0 W/m 8,4 km/h (2 Bft) 97,87 %
10.11.2017 17:20 8,7 C 7,2 C 5,6 C 81 % 0 lf 1013,4 hPa 0,0 l/m 0 min 0 min 0 W/m 10,5 km/h (2 Bft) 95,74 %
10.11.2017 17:22 8,7 C 7,2 C 5,6 C 81 % 0 lf 1013,4 hPa 0,0 l/m 0 min 0 min 0 W/m 14,6 km/h (3 Bft) 97,83 %
10.11.2017 17:24 8,6 C 7,2 C 5,0 C 81 % 0 lf 1013,4 hPa 0,0 l/m 0 min 0 min 0 W/m 14,6 km/h (3 Bft) 95,74 %
10.11.2017 17:26 8,6 C 7,2 C 5,0 C 81 % 0 lf 1013,5 hPa 0,0 l/m 0 min 0 min 0 W/m 31,4 km/h (5 Bft) 97,87 %
10.11.2017 17:28 8,5 C 7,8 C 5,6 C 81 % 0 lf 1013,5 hPa 0,0 l/m 0 min 0 min 0 W/m 18,8 km/h (3 Bft) 93,62 %
10.11.2017 17:30 8,4 C 7,8 C 5,6 C 81 % 0 lf 1013,5 hPa 0,0 l/m 0 min 0 min 0 W/m 27,2 km/h (4 Bft) 97,87 %
10.11.2017 17:32 8,4 C 7,8 C 5,6 C 81 % 0 lf 1013,6 hPa 0,0 l/m 0 min 0 min 0 W/m 29,3 km/h (5 Bft) 97,87 %
10.11.2017 17:34 8,4 C 7,8 C 5,6 C 81 % 0 lf 1013,6 hPa 0,0 l/m 0 min 0 min 0 W/m 20,9 km/h (4 Bft) 97,83 %
10.11.2017 17:36 8,3 C 7,8 C 5,6 C 81 % 0 lf 1013,7 hPa 0,0 l/m 0 min 0 min 0 W/m 12,6 km/h (3 Bft) 93,62 %
10.11.2017 17:38 8,3 C 7,8 C 5,6 C 81 % 0 lf 1013,7 hPa 0,0 l/m 0 min 0 min 0 W/m 23,0 km/h (4 Bft) 93,62 %
10.11.2017 17:40 8,3 C 7,8 C 5,6 C 81 % 0 lf 1013,7 hPa 0,0 l/m 0 min 0 min 0 W/m 18,8 km/h (3 Bft) 97,87 %
10.11.2017 17:42 8,3 C 7,2 C 5,0 C 81 % 0 lf 1013,8 hPa 0,0 l/m 0 min 0 min 0 W/m 16,7 km/h (3 Bft) 97,87 %
10.11.2017 17:44 8,2 C 7,2 C 5,0 C 81 % 0 lf 1013,7 hPa 0,0 l/m 0 min 0 min 0 W/m 12,6 km/h (3 Bft) 95,74 %
10.11.2017 17:46 8,2 C 7,2 C 5,0 C 81 % 0 lf 1013,8 hPa 0,0 l/m 0 min 0 min 0 W/m 23,0 km/h (4 Bft) 91,30 %
10.11.2017 17:48 8,2 C 7,2 C 5,0 C 81 % 0 lf 1013,9 hPa 0,0 l/m 0 min 0 min 0 W/m 14,6 km/h (3 Bft) 89,36 %
10.11.2017 17:50 8,2 C 7,2 C 5,0 C 81 % 0 lf 1013,9 hPa 0,0 l/m 0 min 0 min 0 W/m 18,8 km/h (3 Bft) 93,62 %
10.11.2017 17:52 8,1 C 7,2 C 5,0 C 81 % 0 lf 1013,9 hPa 0,0 l/m 0 min 0 min 0 W/m 12,6 km/h (3 Bft) 95,74 %
10.11.2017 17:54 8,1 C 7,2 C 5,0 C 81 % 0 lf 1013,9 hPa 0,0 l/m 0 min 0 min 0 W/m 18,8 km/h (3 Bft) 95,74 %
10.11.2017 17:56 8,1 C 7,2 C 5,0 C 81 % 0 lf 1013,9 hPa 0,0 l/m 0 min 0 min 0 W/m 16,7 km/h (3 Bft) 93,62 %
10.11.2017 17:58 8,0 C 7,2 C 5,0 C 81 % 0 lf 1013,9 hPa 0,0 l/m 0 min 0 min 0 W/m 14,6 km/h (3 Bft) 93,48 %
10.11.2017 18:00 7,9 C 7,2 C 5,0 C 81 % 0 lf 1014,0 hPa 0,0 l/m 0 min 0 min 0 W/m 16,7 km/h (3 Bft) 95,74 %
10.11.2017 18:02 7,9 C 7,2 C 5,0 C 81 % 0 lf 1014,0 hPa 0,0 l/m 0 min 0 min 0 W/m 14,6 km/h (3 Bft) 93,62 %
10.11.2017 18:04 7,9 C 6,7 C 5,0 C 81 % 0 lf 1014,0 hPa 0,0 l/m 0 min 0 min 0 W/m 14,6 km/h (3 Bft) 95,74 %
10.11.2017 18:06 7,9 C 6,7 C 5,0 C 81 % 0 lf 1014,0 hPa 0,0 l/m 0 min 0 min 0 W/m 18,8 km/h (3 Bft) 93,62 %
10.11.2017 18:10 7,8 C 6,7 C 5,0 C 81 % 0 lf 1014,0 hPa 0,0 l/m 0 min 0 min 0 W/m 16,7 km/h (3 Bft) 96,77 %
10.11.2017 18:12 7,8 C 6,7 C 5,0 C 81 % 0 lf 1014,0 hPa 0,0 l/m 0 min 0 min 0 W/m 18,8 km/h (3 Bft) 91,49 %
10.11.2017 18:14 7,7 C 6,7 C 5,0 C 81 % 0 lf 1014,0 hPa 0,0 l/m 0 min 0 min 0 W/m 14,6 km/h (3 Bft) 93,62 %
10.11.2017 18:16 7,7 C 6,7 C 5,0 C 81 % 0 lf 1014,0 hPa 0,0 l/m 0 min 0 min 0 W/m 23,0 km/h (4 Bft) 91,49 %
10.11.2017 18:18 7,7 C 6,7 C 5,0 C 81 % 0 lf 1014,1 hPa 0,0 l/m 0 min 0 min 0 W/m 18,8 km/h (3 Bft) 95,74 %
10.11.2017 18:20 7,7 C 6,7 C 5,0 C 81 % 0 lf 1014,2 hPa 0,0 l/m 0 min 0 min 0 W/m 16,7 km/h (3 Bft) 89,36 %
10.11.2017 18:22 7,7 C 6,7 C 5,0 C 82 % 0 lf 1014,2 hPa 0,0 l/m 0 min 0 min 0 W/m 12,6 km/h (3 Bft) 93,48 %
10.11.2017 18:24 7,6 C 6,7 C 5,0 C 82 % 0 lf 1014,2 hPa 0,0 l/m 0 min 0 min 0 W/m 18,8 km/h (3 Bft) 93,62 %
10.11.2017 18:26 7,6 C 6,7 C 5,0 C 82 % 0 lf 1014,2 hPa 0,0 l/m 0 min 0 min 0 W/m 20,9 km/h (4 Bft) 93,62 %
10.11.2017 18:28 7,6 C 6,7 C 5,0 C 82 % 0 lf 1014,3 hPa 0,0 l/m 0 min 0 min 0 W/m 16,7 km/h (3 Bft) 93,62 %
10.11.2017 18:30 7,6 C 6,7 C 5,0 C 82 % 0 lf 1014,3 hPa 0,0 l/m 0 min 0 min 0 W/m 18,8 km/h (3 Bft) 97,87 %
10.11.2017 18:32 7,6 C 6,7 C 5,0 C 82 % 0 lf 1014,3 hPa 0,0 l/m 0 min 0 min 0 W/m 20,9 km/h (4 Bft) 97,83 %
10.11.2017 18:34 7,5 C 6,7 C 5,0 C 82 % 0 lf 1014,3 hPa 0,0 l/m 0 min 0 min 0 W/m 18,8 km/h (3 Bft) 93,62 %
10.11.2017 18:36 7,5 C 6,7 C 5,0 C 82 % 0 lf 1014,4 hPa 0,0 l/m 0 min 0 min 0 W/m 14,6 km/h (3 Bft) 97,87 %
10.11.2017 18:38 7,5 C 6,7 C 4,4 C 82 % 0 lf 1014,3 hPa 0,0 l/m 0 min 0 min 0 W/m 16,7 km/h (3 Bft) 95,74 %
10.11.2017 18:40 7,5 C 6,7 C 4,4 C 82 % 0 lf 1014,4 hPa 0,0 l/m 0 min 0 min 0 W/m 12,6 km/h (3 Bft) 97,87 %
10.11.2017 18:42 7,4 C 6,1 C 4,4 C 83 % 0 lf 1014,5 hPa 0,0 l/m 0 min 0 min 0 W/m 16,7 km/h (3 Bft) 95,74 %
10.11.2017 18:44 7,4 C 6,1 C 4,4 C 82 % 0 lf 1014,4 hPa 0,0 l/m 0 min 0 min 0 W/m 16,7 km/h (3 Bft) 98,08 %
10.11.2017 18:46 7,4 C 6,1 C 4,4 C 83 % 0 lf 1014,5 hPa 0,0 l/m 0 min 0 min 0 W/m 16,7 km/h (3 Bft) 97,73 %
10.11.2017 18:48 7,4 C 6,1 C 4,4 C 83 % 0 lf 1014,5 hPa 0,0 l/m 0 min 0 min 0 W/m 12,6 km/h (3 Bft) 97,87 %
10.11.2017 18:50 7,3 C 6,1 C 4,4 C 83 % 0 lf 1014,5 hPa 0,0 l/m 0 min 0 min 0 W/m 14,6 km/h (3 Bft) 97,87 %
10.11.2017 18:52 7,3 C 6,7 C 4,4 C 83 % 0 lf 1014,5 hPa 0,0 l/m 0 min 0 min 0 W/m 14,6 km/h (3 Bft) 95,74 %
10.11.2017 18:54 7,3 C 6,7 C 4,4 C 83 % 0 lf 1014,5 hPa 0,0 l/m 0 min 0 min 0 W/m 14,6 km/h (3 Bft) 97,87 %
10.11.2017 18:56 7,2 C 6,7 C 4,4 C 83 % 0 lf 1014,6 hPa 0,0 l/m 0 min 0 min 0 W/m 12,6 km/h (3 Bft) 95,65 %
10.11.2017 18:58 7,2 C 6,7 C 4,4 C 83 % 0 lf 1014,5 hPa 0,0 l/m 0 min 0 min 0 W/m 20,9 km/h (4 Bft) 95,74 %
10.11.2017 19:00 7,2 C 6,7 C 4,4 C 83 % 0 lf 1014,5 hPa 0,0 l/m 0 min 0 min 0 W/m 12,6 km/h (3 Bft) 97,87 %
10.11.2017 19:02 7,2 C 6,1 C 4,4 C 84 % 0 lf 1014,5 hPa 0,0 l/m 0 min 0 min 0 W/m 14,6 km/h (3 Bft) 97,87 %
10.11.2017 19:04 7,2 C 6,1 C 4,4 C 83 % 0 lf 1014,6 hPa 0,0 l/m 0 min 0 min 0 W/m 12,6 km/h (3 Bft) 97,87 %
10.11.2017 19:06 7,1 C 6,1 C 4,4 C 83 % 0 lf 1014,6 hPa 0,0 l/m 0 min 0 min 0 W/m 16,7 km/h (3 Bft) 95,65 %
10.11.2017 19:08 7,1 C 6,1 C 4,4 C 83 % 0 lf 1014,6 hPa 0,0 l/m 0 min 0 min 0 W/m 12,6 km/h (3 Bft) 95,74 %
10.11.2017 19:10 7,1 C 6,1 C 4,4 C 84 % 0 lf 1014,7 hPa 0,0 l/m 0 min 0 min 0 W/m 20,9 km/h (4 Bft) 93,62 %
10.11.2017 19:12 7,1 C 6,1 C 4,4 C 84 % 0 lf 1014,6 hPa 0,0 l/m 0 min 0 min 0 W/m 16,7 km/h (3 Bft) 97,87 %
10.11.2017 19:14 7,1 C 6,1 C 4,4 C 84 % 0 lf 1014,6 hPa 0,0 l/m 0 min 0 min 0 W/m 14,6 km/h (3 Bft) 93,62 %
10.11.2017 19:16 7,0 C 6,1 C 4,4 C 84 % 0 lf 1014,7 hPa 0,0 l/m 0 min 0 min 0 W/m 18,8 km/h (3 Bft) 97,87 %
10.11.2017 19:18 7,0 C 6,1 C 4,4 C 84 % 0 lf 1014,6 hPa 0,0 l/m 0 min 0 min 0 W/m 16,7 km/h (3 Bft) 97,83 %
10.11.2017 19:20 7,0 C 6,1 C 4,4 C 84 % 0 lf 1014,7 hPa 0,0 l/m 0 min 0 min 0 W/m 16,7 km/h (3 Bft) 97,87 %
10.11.2017 19:22 6,9 C 6,1 C 4,4 C 84 % 0 lf 1014,6 hPa 0,0 l/m 0 min 0 min 0 W/m 12,6 km/h (3 Bft) 95,74 %
10.11.2017 19:24 6,9 C 6,1 C 4,4 C 84 % 0 lf 1014,6 hPa 0,0 l/m 0 min 0 min 0 W/m 16,7 km/h (3 Bft) 100,00 %
10.11.2017 19:26 6,9 C 6,1 C 4,4 C 84 % 0 lf 1014,7 hPa 0,0 l/m 0 min 0 min 0 W/m 14,6 km/h (3 Bft) 100,00 %
10.11.2017 19:28 6,9 C 6,1 C 4,4 C 84 % 0 lf 1014,7 hPa 0,0 l/m 0 min 0 min 0 W/m 12,6 km/h (3 Bft) 100,00 %
10.11.2017 19:30 6,9 C 6,1 C 4,4 C 84 % 0 lf 1014,7 hPa 0,0 l/m 0 min 0 min 0 W/m 12,6 km/h (3 Bft) 100,00 %
10.11.2017 19:32 6,8 C 6,1 C 4,4 C 84 % 0 lf 1014,7 hPa 0,0 l/m 0 min 0 min 0 W/m 20,9 km/h (4 Bft) 100,00 %
10.11.2017 19:34 6,8 C 6,1 C 4,4 C 84 % 0 lf 1014,7 hPa 0,0 l/m 0 min 0 min 0 W/m 16,7 km/h (3 Bft) 100,00 %
10.11.2017 19:36 6,8 C 6,1 C 4,4 C 84 % 0 lf 1014,7 hPa 0,0 l/m 0 min 0 min 0 W/m 18,8 km/h (3 Bft) 97,87 %
10.11.2017 19:38 6,8 C 6,1 C 4,4 C 85 % 0 lf 1014,6 hPa 0,0 l/m 0 min 0 min 0 W/m 14,6 km/h (3 Bft) 100,00 %
10.11.2017 19:40 6,7 C 6,1 C 4,4 C 85 % 0 lf 1014,6 hPa 0,0 l/m 0 min 0 min 0 W/m 20,9 km/h (4 Bft) 97,87 %
10.11.2017 19:42 6,7 C 6,1 C 4,4 C 85 % 0 lf 1014,6 hPa 0,0 l/m 0 min 0 min 0 W/m 14,6 km/h (3 Bft) 100,00 %
10.11.2017 19:44 6,7 C 6,1 C 3,9 C 85 % 0 lf 1014,6 hPa 0,0 l/m 0 min 0 min 0 W/m 16,7 km/h (3 Bft) 100,00 %
10.11.2017 19:46 6,7 C 6,1 C 3,9 C 85 % 0 lf 1014,7 hPa 0,0 l/m 0 min 0 min 0 W/m 16,7 km/h (3 Bft) 97,87 %
10.11.2017 19:48 6,6 C 6,1 C 4,4 C 85 % 0 lf 1014,7 hPa 0,0 l/m 0 min 0 min 0 W/m 16,7 km/h (3 Bft) 95,74 %
10.11.2017 19:50 6,6 C 6,1 C 4,4 C 85 % 0 lf 1014,7 hPa 0,0 l/m 0 min 0 min 0 W/m 18,8 km/h (3 Bft) 97,87 %
10.11.2017 19:52 6,6 C 5,6 C 3,9 C 85 % 0 lf 1014,7 hPa 0,0 l/m 0 min 0 min 0 W/m 14,6 km/h (3 Bft) 97,87 %
10.11.2017 19:54 6,6 C 6,1 C 3,9 C 85 % 0 lf 1014,7 hPa 0,0 l/m 0 min 0 min 0 W/m 20,9 km/h (4 Bft) 97,83 %
10.11.2017 19:56 6,6 C 6,1 C 3,9 C 85 % 0 lf 1014,7 hPa 0,0 l/m 0 min 0 min 0 W/m 14,6 km/h (3 Bft) 97,87 %
10.11.2017 19:58 6,5 C 6,1 C 3,9 C 85 % 0 lf 1014,7 hPa 0,0 l/m 0 min 0 min 0 W/m 14,6 km/h (3 Bft) 97,87 %
10.11.2017 20:00 6,5 C 5,6 C 3,9 C 85 % 0 lf 1014,7 hPa 0,0 l/m 0 min 0 min 0 W/m 12,6 km/h (3 Bft) 97,87 %
10.11.2017 20:02 6,5 C 5,6 C 3,9 C 85 % 0 lf 1014,7 hPa 0,0 l/m 0 min 0 min 0 W/m 16,7 km/h (3 Bft) 95,74 %
10.11.2017 20:04 6,4 C 5,6 C 3,9 C 85 % 0 lf 1014,7 hPa 0,0 l/m 0 min 0 min 0 W/m 16,7 km/h (3 Bft) 97,87 %
10.11.2017 20:06 6,4 C 5,6 C 3,9 C 85 % 0 lf 1014,7 hPa 0,0 l/m 0 min 0 min 0 W/m 14,6 km/h (3 Bft) 97,83 %
10.11.2017 20:08 6,4 C 5,6 C 3,9 C 85 % 0 lf 1014,7 hPa 0,0 l/m 0 min 0 min 0 W/m 14,6 km/h (3 Bft) 95,74 %
10.11.2017 20:10 6,4 C 5,6 C 3,9 C 85 % 0 lf 1014,7 hPa 0,0 l/m 0 min 0 min 0 W/m 14,6 km/h (3 Bft) 97,87 %
10.11.2017 20:12 6,4 C 5,6 C 3,9 C 85 % 0 lf 1014,7 hPa 0,0 l/m 0 min 0 min 0 W/m 12,6 km/h (3 Bft) 95,74 %
10.11.2017 20:14 6,4 C 5,6 C 3,9 C 85 % 0 lf 1014,7 hPa 0,0 l/m 0 min 0 min 0 W/m 14,6 km/h (3 Bft) 93,62 %
10.11.2017 20:16 6,3 C 5,6 C 3,9 C 85 % 0 lf 1014,7 hPa 0,0 l/m 0 min 0 min 0 W/m 10,5 km/h (2 Bft) 95,74 %
10.11.2017 20:18 6,3 C 5,6 C 3,9 C 85 % 0 lf 1014,8 hPa 0,0 l/m 0 min 0 min 0 W/m 12,6 km/h (3 Bft) 97,83 %
10.11.2017 20:20 6,3 C 5,6 C 3,9 C 85 % 0 lf 1014,7 hPa 0,0 l/m 0 min 0 min 0 W/m 16,7 km/h (3 Bft) 95,74 %
10.11.2017 20:22 6,2 C 5,6 C 3,9 C 85 % 0 lf 1014,7 hPa 0,0 l/m 0 min 0 min 0 W/m 16,7 km/h (3 Bft) 95,74 %
10.11.2017 20:24 6,2 C 5,6 C 3,9 C 86 % 0 lf 1014,8 hPa 0,0 l/m 0 min 0 min 0 W/m 16,7 km/h (3 Bft) 95,74 %
10.11.2017 20:26 6,2 C 5,6 C 3,9 C 86 % 0 lf 1014,8 hPa 0,0 l/m 0 min 0 min 0 W/m 14,6 km/h (3 Bft) 93,62 %
10.11.2017 20:28 6,2 C 5,6 C 3,9 C 86 % 1 lf 1014,8 hPa 0,0 l/m 0 min 0 min 0 W/m 12,6 km/h (3 Bft) 95,65 %
10.11.2017 20:30 6,1 C 5,6 C 3,9 C 86 % 1 lf 1014,7 hPa 0,0 l/m 0 min 0 min 0 W/m 16,7 km/h (3 Bft) 93,62 %
10.11.2017 20:32 6,1 C 5,6 C 3,9 C 86 % 1 lf 1014,8 hPa 0,0 l/m 0 min 0 min 0 W/m 12,6 km/h (3 Bft) 91,49 %
10.11.2017 20:34 6,1 C 5,6 C 3,9 C 86 % 0 lf 1014,8 hPa 0,0 l/m 0 min 0 min 0 W/m 14,6 km/h (3 Bft) 93,62 %
10.11.2017 20:36 6,1 C 5,6 C 3,9 C 86 % 0 lf 1014,7 hPa 0,0 l/m 0 min 0 min 0 W/m 16,7 km/h (3 Bft) 93,62 %
10.11.2017 20:38 6,1 C 5,6 C 3,9 C 86 % 0 lf 1014,7 hPa 0,0 l/m 0 min 0 min 0 W/m 16,7 km/h (3 Bft) 95,74 %
10.11.2017 20:40 6,1 C 5,6 C 3,9 C 86 % 0 lf 1014,7 hPa 0,0 l/m 0 min 0 min 0 W/m 12,6 km/h (3 Bft) 95,65 %
10.11.2017 20:42 6,1 C 5,6 C 3,9 C 86 % 0 lf 1014,7 hPa 0,0 l/m 0 min 0 min 0 W/m 14,6 km/h (3 Bft) 95,74 %
10.11.2017 20:44 6,0 C 5,6 C 3,9 C 87 % 0 lf 1014,8 hPa 0,0 l/m 0 min 0 min 0 W/m 14,6 km/h (3 Bft) 95,74 %
10.11.2017 20:46 6,0 C 5,6 C 3,9 C 87 % 0 lf 1014,8 hPa 0,0 l/m 0 min 0 min 0 W/m 16,7 km/h (3 Bft) 95,74 %
10.11.2017 20:48 5,9 C 5,0 C 3,9 C 87 % 0 lf 1014,8 hPa 0,0 l/m 0 min 0 min 0 W/m 14,6 km/h (3 Bft) 91,49 %
10.11.2017 20:50 5,9 C 5,0 C 3,9 C 87 % 0 lf 1014,7 hPa 0,0 l/m 0 min 0 min 0 W/m 14,6 km/h (3 Bft) 95,74 %
10.11.2017 20:52 5,9 C 5,0 C 3,9 C 87 % 0 lf 1014,7 hPa 0,0 l/m 0 min 0 min 0 W/m 12,6 km/h (3 Bft) 95,65 %
10.11.2017 20:54 5,9 C 5,0 C 3,9 C 87 % 0 lf 1014,7 hPa 0,0 l/m 0 min 0 min 0 W/m 16,7 km/h (3 Bft) 95,74 %
10.11.2017 20:56 5,9 C 5,0 C 3,9 C 87 % 0 lf 1014,7 hPa 0,0 l/m 0 min 0 min 0 W/m 14,6 km/h (3 Bft) 95,74 %
10.11.2017 20:58 5,9 C 5,0 C 3,9 C 87 % 0 lf 1014,7 hPa 0,0 l/m 0 min 0 min 0 W/m 12,6 km/h (3 Bft) 95,74 %
10.11.2017 21:00 5,9 C 5,0 C 3,9 C 87 % 0 lf 1014,7 hPa 0,0 l/m 0 min 0 min 0 W/m 14,6 km/h (3 Bft) 95,74 %
10.11.2017 21:02 5,9 C 5,0 C 3,3 C 87 % 0 lf 1014,7 hPa 0,0 l/m 0 min 0 min 0 W/m 10,5 km/h (2 Bft) 95,74 %
10.11.2017 21:04 5,9 C 5,0 C 3,3 C 87 % 0 lf 1014,7 hPa 0,0 l/m 0 min 0 min 0 W/m 10,5 km/h (2 Bft) 97,83 %
10.11.2017 21:06 5,8 C 5,0 C 3,3 C 87 % 0 lf 1014,7 hPa 0,0 l/m 0 min 0 min 0 W/m 20,9 km/h (4 Bft) 95,74 %
10.11.2017 21:08 5,8 C 5,0 C 3,3 C 87 % 0 lf 1014,7 hPa 0,0 l/m 0 min 0 min 0 W/m 12,6 km/h (3 Bft) 100,00 %
10.11.2017 21:10 5,8 C 5,0 C 3,3 C 87 % 0 lf 1014,8 hPa 0,0 l/m 0 min 0 min 0 W/m 12,6 km/h (3 Bft) 97,87 %
10.11.2017 21:12 5,8 C 5,0 C 3,3 C 87 % 0 lf 1014,7 hPa 0,0 l/m 0 min 0 min 0 W/m 12,6 km/h (3 Bft) 97,87 %
10.11.2017 21:14 5,8 C 5,0 C 3,3 C 87 % 0 lf 1014,7 hPa 0,0 l/m 0 min 0 min 0 W/m 20,9 km/h (4 Bft) 100,00 %
10.11.2017 21:16 5,8 C 5,0 C 3,3 C 87 % 0 lf 1014,7 hPa 0,0 l/m 0 min 0 min 0 W/m 14,6 km/h (3 Bft) 100,00 %
10.11.2017 21:18 5,7 C 5,0 C 3,3 C 87 % 0 lf 1014,8 hPa 0,0 l/m 0 min 0 min 0 W/m 12,6 km/h (3 Bft) 95,74 %
10.11.2017 21:20 5,7 C 5,0 C 3,3 C 87 % 0 lf 1014,7 hPa 0,0 l/m 0 min 0 min 0 W/m 12,6 km/h (3 Bft) 100,00 %
10.11.2017 21:22 5,7 C 5,0 C 3,3 C 87 % 0 lf 1014,8 hPa 0,0 l/m 0 min 0 min 0 W/m 10,5 km/h (2 Bft) 95,24 %
10.11.2017 21:24 5,7 C 5,0 C 3,3 C 87 % 0 lf 1014,8 hPa 0,0 l/m 0 min 0 min 0 W/m 12,6 km/h (3 Bft) 100,00 %
10.11.2017 21:26 5,7 C 5,0 C 3,3 C 87 % 0 lf 1014,9 hPa 0,0 l/m 0 min 0 min 0 W/m 6,3 km/h (2 Bft) 97,83 %
10.11.2017 21:28 5,7 C 5,0 C 3,3 C 87 % 0 lf 1014,9 hPa 0,0 l/m 0 min 0 min 0 W/m 10,5 km/h (2 Bft) 100,00 %
10.11.2017 21:30 5,7 C 5,0 C 3,3 C 87 % 0 lf 1014,9 hPa 0,0 l/m 0 min 0 min 0 W/m 12,6 km/h (3 Bft) 97,87 %
10.11.2017 21:32 5,6 C 4,4 C 3,3 C 87 % 0 lf 1014,8 hPa 0,0 l/m 0 min 0 min 0 W/m 10,5 km/h (2 Bft) 97,87 %
10.11.2017 21:34 5,6 C 4,4 C 2,8 C 87 % 0 lf 1014,9 hPa 0,0 l/m 0 min 0 min 0 W/m 8,4 km/h (2 Bft) 100,00 %
10.11.2017 21:36 5,6 C 4,4 C 2,8 C 87 % 0 lf 1015,0 hPa 0,0 l/m 0 min 0 min 0 W/m 8,4 km/h (2 Bft) 97,87 %
10.11.2017 21:38 5,6 C 4,4 C 2,8 C 87 % 0 lf 1015,0 hPa 0,0 l/m 0 min 0 min 0 W/m 8,4 km/h (2 Bft) 97,83 %
10.11.2017 21:40 5,6 C 4,4 C 2,8 C 87 % 0 lf 1014,8 hPa 0,0 l/m 0 min 0 min 0 W/m 8,4 km/h (2 Bft) 95,74 %
10.11.2017 21:42 5,6 C 4,4 C 2,2 C 87 % 0 lf 1014,9 hPa 0,0 l/m 0 min 0 min 0 W/m 6,8 km/h (2 Bft) 97,62 %
10.11.2017 21:44 5,5 C 4,4 C 2,2 C 87 % 0 lf 1014,8 hPa 0,0 l/m 0 min 0 min 0 W/m 11,3 km/h (2 Bft) 98,00 %
10.11.2017 21:46 5,5 C 4,4 C 2,8 C 87 % 0 lf 1014,9 hPa 0,0 l/m 0 min 0 min 0 W/m 13,5 km/h (3 Bft) 95,74 %
10.11.2017 21:48 5,4 C 4,4 C 2,8 C 87 % 0 lf 1015,0 hPa 0,0 l/m 0 min 0 min 0 W/m 15,8 km/h (3 Bft) 95,74 %
10.11.2017 21:50 5,4 C 4,4 C 2,8 C 87 % 0 lf 1015,0 hPa 0,0 l/m 0 min 0 min 0 W/m 15,8 km/h (3 Bft) 97,87 %
10.11.2017 21:52 5,4 C 4,4 C 2,8 C 87 % 0 lf 1015,0 hPa 0,0 l/m 0 min 0 min 0 W/m 13,5 km/h (3 Bft) 97,83 %
10.11.2017 21:54 5,3 C 4,4 C 2,8 C 87 % 0 lf 1015,0 hPa 0,0 l/m 0 min 0 min 0 W/m 11,3 km/h (2 Bft) 97,87 %
10.11.2017 21:56 5,3 C 4,4 C 2,8 C 87 % 0 lf 1014,9 hPa 0,0 l/m 0 min 0 min 0 W/m 18,0 km/h (3 Bft) 89,36 %
10.11.2017 21:58 5,3 C 4,4 C 2,8 C 87 % 0 lf 1014,9 hPa 0,0 l/m 0 min 0 min 0 W/m 13,5 km/h (3 Bft) 97,87 %
10.11.2017 22:00 5,3 C 4,4 C 2,8 C 87 % 0 lf 1015,0 hPa 0,0 l/m 0 min 0 min 0 W/m 15,8 km/h (3 Bft) 95,74 %
10.11.2017 22:02 5,3 C 5,0 C 3,3 C 87 % 0 lf 1015,0 hPa 0,0 l/m 0 min 0 min 0 W/m 22,5 km/h (4 Bft) 97,87 %
10.11.2017 22:04 5,3 C 5,0 C 3,3 C 87 % 0 lf 1015,0 hPa 0,0 l/m 0 min 0 min 0 W/m 15,8 km/h (3 Bft) 95,65 %
10.11.2017 22:06 5,2 C 5,0 C 3,3 C 87 % 0 lf 1015,0 hPa 0,0 l/m 0 min 0 min 0 W/m 15,8 km/h (3 Bft) 97,87 %
10.11.2017 22:08 5,2 C 5,0 C 3,3 C 87 % 0 lf 1014,9 hPa 0,0 l/m 0 min 0 min 0 W/m 20,3 km/h (4 Bft) 97,87 %
10.11.2017 22:10 5,2 C 5,0 C 3,3 C 88 % 0 lf 1014,9 hPa 0,0 l/m 0 min 0 min 0 W/m 13,5 km/h (3 Bft) 97,87 %
10.11.2017 22:12 5,2 C 5,0 C 3,3 C 88 % 0 lf 1014,9 hPa 0,0 l/m 0 min 0 min 0 W/m 22,5 km/h (4 Bft) 95,74 %
10.11.2017 22:14 5,3 C 5,0 C 3,3 C 88 % 0 lf 1014,9 hPa 0,0 l/m 0 min 0 min 0 W/m 15,8 km/h (3 Bft) 100,00 %
10.11.2017 22:16 5,3 C 5,0 C 3,3 C 88 % 0 lf 1014,8 hPa 0,0 l/m 0 min 0 min 0 W/m 15,8 km/h (3 Bft) 100,00 %
10.11.2017 22:18 5,3 C 5,0 C 3,3 C 88 % 0 lf 1014,8 hPa 0,0 l/m 0 min 0 min 0 W/m 22,5 km/h (4 Bft) 97,87 %
10.11.2017 22:20 5,3 C 5,0 C 3,3 C 88 % 0 lf 1014,8 hPa 0,0 l/m 0 min 0 min 0 W/m 18,0 km/h (3 Bft) 93,62 %
10.11.2017 22:22 5,3 C 5,0 C 3,3 C 88 % 0 lf 1014,9 hPa 0,0 l/m 0 min 0 min 0 W/m 20,3 km/h (4 Bft) 97,87 %
10.11.2017 22:24 5,3 C 5,0 C 3,9 C 88 % 0 lf 1015,0 hPa 0,0 l/m 0 min 0 min 0 W/m 13,5 km/h (3 Bft) 100,00 %
10.11.2017 22:26 5,3 C 5,0 C 3,9 C 88 % 0 lf 1015,0 hPa 0,0 l/m 0 min 0 min 0 W/m 13,5 km/h (3 Bft) 100,00 %
10.11.2017 22:28 5,3 C 5,0 C 3,9 C 88 % 0 lf 1015,0 hPa 0,0 l/m 0 min 0 min 0 W/m 22,5 km/h (4 Bft) 97,83 %
10.11.2017 22:30 5,3 C 5,6 C 3,9 C 88 % 0 lf 1014,9 hPa 0,0 l/m 0 min 0 min 0 W/m 24,8 km/h (4 Bft) 97,87 %
10.11.2017 22:32 5,4 C 5,6 C 3,9 C 88 % 0 lf 1014,8 hPa 0,0 l/m 0 min 0 min 0 W/m 15,8 km/h (3 Bft) 95,74 %
10.11.2017 22:34 5,4 C 5,6 C 3,9 C 88 % 0 lf 1014,9 hPa 0,0 l/m 0 min 0 min 0 W/m 18,0 km/h (3 Bft) 97,87 %
10.11.2017 22:36 5,4 C 5,6 C 4,4 C 88 % 0 lf 1014,9 hPa 0,0 l/m 0 min 0 min 0 W/m 20,3 km/h (4 Bft) 97,87 %
10.11.2017 22:38 5,4 C 5,6 C 4,4 C 88 % 0 lf 1015,0 hPa 0,0 l/m 0 min 0 min 0 W/m 24,8 km/h (4 Bft) 95,65 %
10.11.2017 22:40 5,5 C 5,6 C 4,4 C 88 % 0 lf 1015,0 hPa 0,0 l/m 0 min 0 min 0 W/m 24,8 km/h (4 Bft) 93,62 %
10.11.2017 22:42 5,6 C 6,1 C 4,4 C 88 % 0 lf 1014,9 hPa 0,0 l/m 0 min 0 min 0 W/m 18,0 km/h (3 Bft) 97,87 %
10.11.2017 22:44 5,7 C 6,1 C 4,4 C 88 % 0 lf 1014,8 hPa 0,0 l/m 0 min 0 min 0 W/m 24,8 km/h (4 Bft) 97,87 %
10.11.2017 22:46 5,7 C 6,1 C 4,4 C 88 % 0 lf 1014,9 hPa 0,0 l/m 0 min 0 min 0 W/m 20,3 km/h (4 Bft) 97,87 %
10.11.2017 22:48 5,7 C 5,6 C 4,4 C 88 % 0 lf 1014,9 hPa 0,0 l/m 0 min 0 min 0 W/m 22,5 km/h (4 Bft) 97,87 %
10.11.2017 22:50 5,8 C 5,6 C 4,4 C 88 % 0 lf 1014,8 hPa 0,0 l/m 0 min 0 min 0 W/m 22,5 km/h (4 Bft) 93,62 %
10.11.2017 22:52 5,8 C 5,6 C 4,4 C 88 % 0 lf 1014,9 hPa 0,0 l/m 0 min 0 min 0 W/m 20,3 km/h (4 Bft) 97,83 %
10.11.2017 22:54 5,8 C 5,6 C 3,9 C 87 % 0 lf 1014,9 hPa 0,0 l/m 0 min 0 min 0 W/m 15,8 km/h (3 Bft) 93,62 %
10.11.2017 22:56 5,8 C 5,6 C 3,9 C 87 % 0 lf 1014,9 hPa 0,0 l/m 0 min 0 min 0 W/m 18,0 km/h (3 Bft) 95,74 %
10.11.2017 22:58 5,8 C 5,6 C 3,9 C 87 % 0 lf 1014,9 hPa 0,0 l/m 0 min 0 min 0 W/m 18,0 km/h (3 Bft) 97,87 %
10.11.2017 23:00 5,8 C 5,6 C 3,9 C 87 % 0 lf 1014,8 hPa 0,0 l/m 0 min 0 min 0 W/m 15,8 km/h (3 Bft) 95,74 %
10.11.2017 23:02 5,8 C 5,6 C 3,9 C 87 % 0 lf 1014,8 hPa 0,0 l/m 0 min 0 min 0 W/m 18,0 km/h (3 Bft) 93,48 %
10.11.2017 23:04 5,8 C 5,0 C 3,9 C 87 % 0 lf 1014,8 hPa 0,0 l/m 0 min 0 min 0 W/m 13,5 km/h (3 Bft) 95,74 %
10.11.2017 23:06 5,8 C 5,0 C 3,9 C 87 % 0 lf 1014,7 hPa 0,0 l/m 0 min 0 min 0 W/m 13,5 km/h (3 Bft) 95,74 %
10.11.2017 23:08 5,8 C 5,0 C 3,3 C 86 % 0 lf 1014,7 hPa 0,0 l/m 0 min 0 min 0 W/m 13,5 km/h (3 Bft) 95,74 %
10.11.2017 23:10 5,8 C 5,0 C 3,3 C 86 % 0 lf 1014,7 hPa 0,0 l/m 0 min 0 min 0 W/m 15,8 km/h (3 Bft) 95,74 %
10.11.2017 23:12 5,8 C 5,0 C 3,3 C 86 % 0 lf 1014,7 hPa 0,0 l/m 0 min 0 min 0 W/m 11,3 km/h (2 Bft) 93,62 %
10.11.2017 23:14 5,8 C 5,0 C 3,3 C 86 % 0 lf 1014,8 hPa 0,0 l/m 0 min 0 min 0 W/m 15,8 km/h (3 Bft) 95,65 %
10.11.2017 23:16 5,7 C 5,0 C 3,3 C 86 % 0 lf 1014,8 hPa 0,0 l/m 0 min 0 min 0 W/m 15,8 km/h (3 Bft) 95,74 %
10.11.2017 23:18 5,7 C 4,4 C 3,3 C 86 % 0 lf 1014,7 hPa 0,0 l/m 0 min 0 min 0 W/m 15,8 km/h (3 Bft) 91,49 %
10.11.2017 23:20 5,7 C 4,4 C 3,3 C 86 % 0 lf 1014,7 hPa 0,0 l/m 0 min 0 min 0 W/m 11,3 km/h (2 Bft) 93,62 %
10.11.2017 23:22 5,7 C 4,4 C 3,3 C 86 % 0 lf 1014,7 hPa 0,0 l/m 0 min 0 min 0 W/m 11,3 km/h (2 Bft) 91,49 %
10.11.2017 23:24 5,6 C 4,4 C 3,3 C 86 % 0 lf 1014,7 hPa 0,0 l/m 0 min 0 min 0 W/m 13,5 km/h (3 Bft) 91,49 %
10.11.2017 23:26 5,6 C 4,4 C 3,3 C 87 % 0 lf 1014,7 hPa 0,0 l/m 0 min 0 min 0 W/m 13,5 km/h (3 Bft) 89,13 %
10.11.2017 23:28 5,6 C 4,4 C 3,3 C 87 % 0 lf 1014,7 hPa 0,0 l/m 0 min 0 min 0 W/m 18,0 km/h (3 Bft) 89,36 %
10.11.2017 23:30 5,5 C 4,4 C 3,3 C 86 % 0 lf 1014,7 hPa 0,0 l/m 0 min 0 min 0 W/m 20,3 km/h (4 Bft) 91,49 %
10.11.2017 23:32 5,4 C 4,4 C 3,3 C 87 % 0 lf 1014,7 hPa 0,0 l/m 0 min 0 min 0 W/m 13,5 km/h (3 Bft) 93,62 %
10.11.2017 23:34 5,4 C 4,4 C 3,3 C 87 % 0 lf 1014,6 hPa 0,0 l/m 0 min 0 min 0 W/m 13,5 km/h (3 Bft) 93,62 %
10.11.2017 23:36 5,4 C 4,4 C 3,3 C 87 % 0 lf 1014,6 hPa 0,0 l/m 0 min 0 min 0 W/m 13,5 km/h (3 Bft) 93,62 %
10.11.2017 23:38 5,3 C 4,4 C 3,3 C 87 % 0 lf 1014,6 hPa 0,0 l/m 0 min 0 min 0 W/m 18,0 km/h (3 Bft) 93,48 %
10.11.2017 23:40 5,3 C 4,4 C 3,3 C 87 % 0 lf 1014,5 hPa 0,0 l/m 0 min 0 min 0 W/m 18,0 km/h (3 Bft) 89,36 %
10.11.2017 23:42 5,3 C 4,4 C 3,3 C 87 % 0 lf 1014,5 hPa 0,0 l/m 0 min 0 min 0 W/m 18,0 km/h (3 Bft) 93,62 %
10.11.2017 23:44 5,2 C 4,4 C 3,3 C 87 % 0 lf 1014,5 hPa 0,0 l/m 0 min 0 min 0 W/m 22,5 km/h (4 Bft) 91,49 %
10.11.2017 23:46 5,2 C 4,4 C 3,3 C 87 % 0 lf 1014,6 hPa 0,0 l/m 0 min 0 min 0 W/m 24,8 km/h (4 Bft) 95,74 %
10.11.2017 23:48 5,2 C 4,4 C 3,3 C 87 % 0 lf 1014,6 hPa 0,0 l/m 0 min 0 min 0 W/m 22,5 km/h (4 Bft) 95,65 %
10.11.2017 23:50 5,2 C 4,4 C 3,3 C 88 % 0 lf 1014,5 hPa 0,0 l/m 0 min 0 min 0 W/m 22,5 km/h (4 Bft) 95,74 %
10.11.2017 23:52 5,2 C 5,0 C 3,3 C 88 % 0 lf 1014,5 hPa 0,0 l/m 0 min 0 min 0 W/m 22,5 km/h (4 Bft) 95,74 %
10.11.2017 23:54 5,2 C 5,0 C 3,3 C 88 % 0 lf 1014,5 hPa 0,0 l/m 0 min 0 min 0 W/m 20,3 km/h (4 Bft) 91,49 %
10.11.2017 23:56 5,2 C 4,4 C 3,3 C 88 % 0 lf 1014,5 hPa 0,0 l/m 0 min 0 min 0 W/m 18,0 km/h (3 Bft) 91,49 %
10.11.2017 23:58 5,1 C 4,4 C 3,3 C 88 % 0 lf 1014,5 hPa 0,0 l/m 0 min 0 min 0 W/m 18,0 km/h (3 Bft) 95,74 %
_ Min-Zeit 23:58 21:32 21:42 16:26 10:26 14:30 - - - - 21:26 06:22
Minimum _ 5,1 C 4,4 C 2,2 C 75 % 0 lf 1011,1 hPa - - - - 6,3 km/h (2 Bft) 87,23 %
_ Max-Zeit 15:14 14:48 14:04 01:36 00:00 00:00 00:40 11:08 00:36 14:04 15:04 01:40
Maximum _ 11,2 C 16,1 C 10,0 C 97 % 15 lf 1020,6 hPa 0,2 l/m 2 min 2 min 301 W/m 48,1 km/h
SW (6 Bft)
100,00 %
Durchschnitt _ 8,0 C 7,7 C 6,3 C 92 % 8 lf 1015,0 hPa #1,4 l/m #1:24 h #3:38 h 77 W/m 23,6 km/h (4 Bft) 96,43 %
© 2017 W. Hausmann